AFR4091 KMCO-LFPG

Flight info

Callsign AFR4091
Flight time 8h 26m
Altitude 37000
Route FATHE4 VIYAP Q87 JROSS Q135 RAPZZ Q135 RREGG EARZZ Q131 KALDA Q167 TOPRR VALCO KYSKY Q430 FLAPE KURLY KANNI N97B SUPRY 4650N 4840N 4830N 4820N 4815N UMLER UN734 UMOXA ADSET UT512 ANG UN741 KEPER
Aircraft A359/H-SABDE2E3GHIJ1J2J3J4J5M1P2RWXYZ/LB1D1

Departure

Time 2026-04-25 13:51
Airport Orlando International Airport (KMCO)

Arrival

Time 2026-04-25 22:17
Airport Charles de Gaulle International Airport (LFPG)
Time Latitude Longitude Altitude Speed Heading
2026-04-25 13:32 28.43637 -81.31564 106 ft 0 kts 148°
2026-04-25 13:38 28.43655 -81.31573 104 ft 4 kts 191°
2026-04-25 13:38 28.43671 -81.31557 106 ft 4 kts 236°
2026-04-25 13:38 28.43684 -81.31540 105 ft 4 kts 164°
2026-04-25 13:38 28.43684 -81.31537 105 ft 4 kts 130°
2026-04-25 13:39 28.43689 -81.31514 106 ft 4 kts 65°
2026-04-25 13:39 28.43702 -81.31487 106 ft 4 kts 66°
2026-04-25 13:39 28.43699 -81.31459 105 ft 0 kts 281°
2026-04-25 13:39 28.43700 -81.31459 105 ft 0 kts 281°
2026-04-25 13:44 28.43704 -81.31487 106 ft 9 kts 280°
2026-04-25 13:44 28.43716 -81.31560 106 ft 10 kts 280°
2026-04-25 13:44 28.43752 -81.31628 107 ft 12 kts 317°
2026-04-25 13:44 28.43824 -81.31680 109 ft 12 kts 339°
2026-04-25 13:45 28.43837 -81.31682 109 ft 0 kts 354°
2026-04-25 13:45 28.43853 -81.31684 109 ft 8 kts 354°
2026-04-25 13:46 28.43919 -81.31649 107 ft 15 kts 73°
2026-04-25 13:46 28.43925 -81.31500 105 ft 24 kts 88°
2026-04-25 13:46 28.43932 -81.31283 111 ft 28 kts 88°
2026-04-25 13:46 28.43941 -81.31084 120 ft 24 kts 87°
2026-04-25 13:47 28.43943 -81.30860 123 ft 28 kts 92°
2026-04-25 13:47 28.43929 -81.30648 125 ft 30 kts 95°
2026-04-25 13:47 28.43913 -81.30365 104 ft 37 kts 94°
2026-04-25 13:47 28.43897 -81.30078 108 ft 36 kts 94°
2026-04-25 13:48 28.43802 -81.29849 107 ft 32 kts 144°
2026-04-25 13:48 28.43620 -81.29806 108 ft 12 kts 179°
2026-04-25 13:48 28.43611 -81.29806 108 ft 2 kts 178°
2026-04-25 13:48 28.43584 -81.29803 108 ft 6 kts 169°
2026-04-25 13:49 28.43551 -81.29746 107 ft 13 kts 91°
2026-04-25 13:49 28.43551 -81.29637 107 ft 14 kts 90°
2026-04-25 13:49 28.43507 -81.29589 108 ft 6 kts 181°
2026-04-25 13:49 28.43494 -81.29587 111 ft 0 kts 175°
2026-04-25 13:50 28.43363 -81.29586 110 ft 46 kts 179°
2026-04-25 13:50 28.42831 -81.29579 109 ft 106 kts 180°
2026-04-25 13:51 28.41918 -81.29570 112 ft 154 kts 180°
2026-04-25 13:51 28.40859 -81.29559 679 ft 149 kts 179°
2026-04-25 13:51 28.39806 -81.29501 1199 ft 152 kts 176°
2026-04-25 13:51 28.38754 -81.29371 1712 ft 155 kts 172°
2026-04-25 13:52 28.38047 -81.29145 1914 ft 163 kts 160°
2026-04-25 13:52 28.37043 -81.28493 2191 ft 171 kts 147°
2026-04-25 13:52 28.36060 -81.27645 2433 ft 185 kts 141°
2026-04-25 13:52 28.35200 -81.26481 2610 ft 202 kts 122°
2026-04-25 13:53 28.34826 -81.24303 2855 ft 233 kts 76°
2026-04-25 13:53 28.35716 -81.22717 3150 ft 251 kts 38°
2026-04-25 13:53 28.36779 -81.22118 3454 ft 257 kts 13°
2026-04-25 13:53 28.39126 -81.22396 4197 ft 262 kts 342°
2026-04-25 13:54 28.40314 -81.22799 4626 ft 264 kts 344°
2026-04-25 13:54 28.42110 -81.23303 5278 ft 267 kts 348°
2026-04-25 13:54 28.43940 -81.23694 5834 ft 269 kts 351°
2026-04-25 13:54 28.45806 -81.24015 6344 ft 273 kts 352°
2026-04-25 13:55 28.47673 -81.24294 6847 ft 275 kts 353°
2026-04-25 13:55 28.49603 -81.24557 7417 ft 276 kts 353°
2026-04-25 13:55 28.51483 -81.24802 7953 ft 277 kts 353°
2026-04-25 13:55 28.53402 -81.25046 8503 ft 278 kts 352°
2026-04-25 13:56 28.55337 -81.25288 9056 ft 280 kts 352°
2026-04-25 13:56 28.57284 -81.25530 9608 ft 282 kts 352°
2026-04-25 13:56 28.59244 -81.25772 10130 ft 285 kts 352°
2026-04-25 13:56 28.61249 -81.26021 10396 ft 296 kts 352°
2026-04-25 13:57 28.63343 -81.26281 10619 ft 309 kts 352°
2026-04-25 13:57 28.64807 -81.26461 10747 ft 317 kts 352°
2026-04-25 13:57 28.67783 -81.26828 11033 ft 333 kts 352°
2026-04-25 13:57 28.70124 -81.27117 11248 ft 343 kts 352°
2026-04-25 13:58 28.72536 -81.27415 11459 ft 353 kts 352°
2026-04-25 13:58 28.75002 -81.27719 11701 ft 362 kts 352°
2026-04-25 13:58 28.77540 -81.28032 11960 ft 369 kts 352°
2026-04-25 13:58 28.80111 -81.28348 12329 ft 372 kts 352°
2026-04-25 13:59 28.82679 -81.28665 12821 ft 371 kts 352°
2026-04-25 13:59 28.85245 -81.28978 13242 ft 373 kts 353°
2026-04-25 13:59 28.87843 -81.29213 13627 ft 375 kts 354°
2026-04-25 13:59 28.90453 -81.29416 14007 ft 377 kts 354°
2026-04-25 14:00 28.92219 -81.29556 14225 ft 379 kts 354°
2026-04-25 14:00 28.95717 -81.29842 14633 ft 382 kts 354°
2026-04-25 14:00 28.98380 -81.30065 14994 ft 384 kts 354°
2026-04-25 14:00 29.01051 -81.30309 15349 ft 386 kts 353°
2026-04-25 14:01 29.03732 -81.30610 15678 ft 389 kts 352°
2026-04-25 14:01 29.06435 -81.30922 15998 ft 391 kts 352°
2026-04-25 14:01 29.09154 -81.31232 16309 ft 394 kts 352°
2026-04-25 14:01 29.11868 -81.31534 16637 ft 397 kts 353°
2026-04-25 14:02 29.14664 -81.31725 16944 ft 400 kts 355°
2026-04-25 14:02 29.17451 -81.31864 17266 ft 403 kts 355°
2026-04-25 14:02 29.20259 -81.32011 17573 ft 405 kts 355°
2026-04-25 14:02 29.22128 -81.32114 17771 ft 407 kts 355°
2026-04-25 14:03 29.25923 -81.32331 18178 ft 410 kts 355°
2026-04-25 14:03 29.28781 -81.32498 18429 ft 412 kts 355°
2026-04-25 14:03 29.31647 -81.32668 18728 ft 414 kts 355°
2026-04-25 14:03 29.34529 -81.32841 19037 ft 415 kts 355°
2026-04-25 14:04 29.37413 -81.33014 19334 ft 416 kts 355°
2026-04-25 14:04 29.40309 -81.33188 19622 ft 417 kts 355°
2026-04-25 14:04 29.43207 -81.33362 19901 ft 418 kts 355°
2026-04-25 14:04 29.46121 -81.33537 20201 ft 420 kts 355°
2026-04-25 14:05 29.49006 -81.33712 20463 ft 421 kts 355°
2026-04-25 14:05 29.51974 -81.33891 20730 ft 422 kts 355°
2026-04-25 14:05 29.54914 -81.34068 20999 ft 424 kts 355°
2026-04-25 14:05 29.57832 -81.34245 21239 ft 426 kts 355°
2026-04-25 14:06 29.60800 -81.34425 21476 ft 428 kts 355°
2026-04-25 14:06 29.63775 -81.34605 21748 ft 429 kts 355°
2026-04-25 14:06 29.66764 -81.34785 22002 ft 430 kts 355°
2026-04-25 14:06 29.69756 -81.34955 22259 ft 432 kts 355°
2026-04-25 14:07 29.72764 -81.35124 22513 ft 433 kts 355°
2026-04-25 14:07 29.75778 -81.35294 22775 ft 435 kts 355°
2026-04-25 14:07 29.78805 -81.35467 23026 ft 436 kts 355°
2026-04-25 14:07 29.81838 -81.35640 23272 ft 437 kts 355°
2026-04-25 14:08 29.84880 -81.35815 23490 ft 440 kts 355°
2026-04-25 14:08 29.87950 -81.35991 23624 ft 443 kts 355°
2026-04-25 14:08 29.91032 -81.36168 23839 ft 444 kts 355°
2026-04-25 14:08 29.94120 -81.36345 24058 ft 445 kts 356°
2026-04-25 14:09 29.97216 -81.36523 24258 ft 446 kts 356°
2026-04-25 14:09 30.00322 -81.36701 24467 ft 447 kts 356°
2026-04-25 14:09 30.03430 -81.36880 24665 ft 448 kts 356°
2026-04-25 14:09 30.05533 -81.37001 24799 ft 449 kts 356°
2026-04-25 14:10 30.09665 -81.37240 25065 ft 450 kts 356°
2026-04-25 14:10 30.12797 -81.37421 25255 ft 451 kts 356°
2026-04-25 14:10 30.15945 -81.37602 25398 ft 453 kts 356°
2026-04-25 14:10 30.19095 -81.37784 25592 ft 455 kts 356°
2026-04-25 14:11 30.22256 -81.37967 25801 ft 455 kts 356°
2026-04-25 14:11 30.25425 -81.38150 26006 ft 456 kts 356°
2026-04-25 14:11 30.28601 -81.38334 26208 ft 457 kts 356°
2026-04-25 14:11 30.31786 -81.38519 26409 ft 458 kts 356°
2026-04-25 14:12 30.34970 -81.38704 26612 ft 459 kts 356°
2026-04-25 14:12 30.38165 -81.38889 26813 ft 460 kts 356°
2026-04-25 14:12 30.41368 -81.39075 27010 ft 461 kts 357°
2026-04-25 14:12 30.44577 -81.39262 27204 ft 462 kts 357°
2026-04-25 14:13 30.47796 -81.39451 27428 ft 463 kts 357°
2026-04-25 14:13 30.51015 -81.39623 27621 ft 464 kts 357°
2026-04-25 14:13 30.54252 -81.39789 27827 ft 466 kts 357°
2026-04-25 14:13 30.57489 -81.39956 28026 ft 467 kts 357°
2026-04-25 14:14 30.60736 -81.40125 28236 ft 468 kts 357°
2026-04-25 14:14 30.63997 -81.40297 28420 ft 469 kts 357°
2026-04-25 14:14 30.67264 -81.40469 28620 ft 470 kts 357°
2026-04-25 14:14 30.70531 -81.40642 28795 ft 471 kts 358°
2026-04-25 14:15 30.73811 -81.40816 28990 ft 472 kts 358°
2026-04-25 14:15 30.80400 -81.41165 29374 ft 475 kts 358°
2026-04-25 14:15 30.83704 -81.41341 29551 ft 476 kts 358°
2026-04-25 14:16 30.86963 -81.41514 29722 ft 477 kts 358°
2026-04-25 14:16 30.90277 -81.41691 29922 ft 478 kts 358°
2026-04-25 14:16 30.93611 -81.41868 30096 ft 479 kts 358°
2026-04-25 14:16 30.96941 -81.42046 30226 ft 480 kts 358°
2026-04-25 14:17 31.00282 -81.42225 30418 ft 481 kts 358°
2026-04-25 14:17 31.03621 -81.42403 30651 ft 480 kts 358°
2026-04-25 14:17 31.06952 -81.42581 30885 ft 479 kts 357°
2026-04-25 14:17 31.10278 -81.42759 31133 ft 479 kts 357°
2026-04-25 14:18 31.13600 -81.42937 31386 ft 478 kts 357°
2026-04-25 14:18 31.16930 -81.43115 31628 ft 478 kts 357°
2026-04-25 14:18 31.20248 -81.43273 31874 ft 477 kts 359°
2026-04-25 14:18 31.23563 -81.43095 32117 ft 477 kts
2026-04-25 14:19 31.26819 -81.42342 32329 ft 478 kts 15°
2026-04-25 14:19 31.29948 -81.41021 32534 ft 479 kts 21°
2026-04-25 14:19 31.33008 -81.39461 32775 ft 480 kts 23°
2026-04-25 14:19 31.36035 -81.37831 32986 ft 480 kts 24°
2026-04-25 14:20 31.39057 -81.36165 33209 ft 479 kts 24°
2026-04-25 14:20 31.41092 -81.35037 33363 ft 479 kts 24°
2026-04-25 14:20 31.45080 -81.32835 33650 ft 479 kts 24°
2026-04-25 14:20 31.48099 -81.31177 33889 ft 479 kts 23°
2026-04-25 14:21 31.51119 -81.29526 34075 ft 479 kts 23°
2026-04-25 14:21 31.54144 -81.27877 34245 ft 480 kts 23°
2026-04-25 14:21 31.57161 -81.26234 34545 ft 476 kts 23°
2026-04-25 14:21 31.60154 -81.24603 34843 ft 473 kts 23°
2026-04-25 14:22 31.63139 -81.22976 35050 ft 473 kts 23°
2026-04-25 14:22 31.66120 -81.21350 35253 ft 472 kts 23°
2026-04-25 14:22 31.69093 -81.19729 35443 ft 471 kts 23°
2026-04-25 14:22 31.72068 -81.18110 35654 ft 471 kts 23°
2026-04-25 14:23 31.75038 -81.16486 35859 ft 470 kts 23°
2026-04-25 14:23 31.77999 -81.14863 36045 ft 470 kts 23°
2026-04-25 14:23 31.80958 -81.13241 36215 ft 470 kts 23°
2026-04-25 14:23 31.83921 -81.11615 36418 ft 469 kts 23°
2026-04-25 14:24 31.86875 -81.09994 36624 ft 468 kts 23°
2026-04-25 14:24 31.89824 -81.08374 36815 ft 467 kts 23°
2026-04-25 14:24 31.92769 -81.06757 36913 ft 469 kts 23°
2026-04-25 14:25 31.96705 -81.04595 36916 ft 472 kts 23°
2026-04-25 14:25 32.04631 -81.00226 36916 ft 472 kts 23°
2026-04-25 14:26 32.10617 -80.96866 36916 ft 474 kts 23°
2026-04-25 14:26 32.16576 -80.93512 36937 ft 474 kts 23°
2026-04-25 14:27 32.22491 -80.90189 36952 ft 474 kts 23°
2026-04-25 14:27 32.28471 -80.86829 36946 ft 472 kts 23°
2026-04-25 14:28 32.34398 -80.83494 36946 ft 473 kts 23°
2026-04-25 14:28 32.40348 -80.80143 36942 ft 473 kts 24°
2026-04-25 14:29 32.46251 -80.76812 36944 ft 473 kts 24°
2026-04-25 14:29 32.52236 -80.73430 36943 ft 473 kts 24°
2026-04-25 14:30 32.58185 -80.70063 36942 ft 474 kts 24°
2026-04-25 14:30 32.67077 -80.65010 36936 ft 475 kts 25°
2026-04-25 14:31 32.72529 -80.60542 36927 ft 480 kts 41°
2026-04-25 14:31 32.77112 -80.54751 36927 ft 482 kts 46°
2026-04-25 14:32 32.81520 -80.48754 36926 ft 482 kts 47°
2026-04-25 14:32 32.85928 -80.42711 36929 ft 484 kts 47°
2026-04-25 14:33 32.90352 -80.36677 36930 ft 484 kts 47°
2026-04-25 14:33 32.94781 -80.30646 36934 ft 484 kts 47°
2026-04-25 14:34 32.99209 -80.24614 36936 ft 484 kts 47°
2026-04-25 14:34 33.03640 -80.18570 36938 ft 484 kts 47°
2026-04-25 14:35 33.08058 -80.12527 36943 ft 484 kts 47°
2026-04-25 14:35 33.12478 -80.06478 36945 ft 483 kts 47°
2026-04-25 14:36 33.16891 -80.00427 36939 ft 483 kts 47°
2026-04-25 14:36 33.21301 -79.94366 36942 ft 483 kts 47°
2026-04-25 14:37 33.25708 -79.88300 36942 ft 483 kts 47°
2026-04-25 14:37 33.30110 -79.82231 36932 ft 484 kts 47°
2026-04-25 14:38 33.34521 -79.76138 36930 ft 484 kts 47°
2026-04-25 14:38 33.38929 -79.70049 36931 ft 483 kts 47°
2026-04-25 14:39 33.43317 -79.63965 36936 ft 483 kts 47°
2026-04-25 14:39 33.46971 -79.58890 36929 ft 483 kts 47°
2026-04-25 14:40 33.51353 -79.52796 36938 ft 483 kts 47°
2026-04-25 14:40 33.55750 -79.46675 36930 ft 485 kts 47°
2026-04-25 14:41 33.60156 -79.40531 36940 ft 486 kts 47°
2026-04-25 14:41 33.64549 -79.34393 36931 ft 484 kts 47°
2026-04-25 14:42 33.68189 -79.29301 36932 ft 483 kts 47°
2026-04-25 14:42 33.73310 -79.22146 36938 ft 483 kts 48°
2026-04-25 14:43 33.77686 -79.16003 36944 ft 486 kts 47°
2026-04-25 14:43 33.82088 -79.09817 36943 ft 487 kts 47°
2026-04-25 14:44 33.86492 -79.03619 36947 ft 487 kts 48°
2026-04-25 14:44 33.90881 -78.97432 36939 ft 485 kts 48°
2026-04-25 14:45 33.95260 -78.91250 36935 ft 485 kts 48°
2026-04-25 14:45 33.99611 -78.85096 36929 ft 486 kts 47°
2026-04-25 14:46 34.04030 -78.78838 36925 ft 488 kts 47°
2026-04-25 14:46 34.08428 -78.72595 36937 ft 488 kts 48°
2026-04-25 14:47 34.12078 -78.67407 36943 ft 488 kts 48°
2026-04-25 14:47 34.17198 -78.60114 36939 ft 486 kts 48°
2026-04-25 14:48 34.21538 -78.53921 36939 ft 486 kts 47°
2026-04-25 14:48 34.26101 -78.47871 36940 ft 487 kts 40°
2026-04-25 14:49 34.31151 -78.42336 36929 ft 487 kts 39°
2026-04-25 14:49 34.36198 -78.36955 36927 ft 487 kts 39°
2026-04-25 14:50 34.41287 -78.31536 36917 ft 487 kts 39°
2026-04-25 14:50 34.46369 -78.26100 36921 ft 488 kts 39°
2026-04-25 14:51 34.51456 -78.20642 36921 ft 489 kts 39°
2026-04-25 14:51 34.56545 -78.15169 36926 ft 489 kts 39°
2026-04-25 14:52 34.61632 -78.09689 36932 ft 489 kts 39°
2026-04-25 14:52 34.65888 -78.05098 36940 ft 489 kts 39°
2026-04-25 14:53 34.71807 -77.98700 36934 ft 491 kts 39°
2026-04-25 14:53 34.76906 -77.93181 36935 ft 491 kts 39°
2026-04-25 14:54 34.82003 -77.87654 36932 ft 490 kts 39°
2026-04-25 14:54 34.87088 -77.82129 36924 ft 490 kts 39°
2026-04-25 14:55 34.92247 -77.76708 36933 ft 490 kts 37°
2026-04-25 14:55 34.97479 -77.71350 36928 ft 491 kts 37°
2026-04-25 14:56 35.02702 -77.65971 36933 ft 491 kts 38°
2026-04-25 14:56 35.07909 -77.60573 36931 ft 491 kts 38°
2026-04-25 14:57 35.13110 -77.55157 36926 ft 491 kts 38°
2026-04-25 14:57 35.18451 -77.49968 36923 ft 490 kts 33°
2026-04-25 14:58 35.24040 -77.45207 36919 ft 490 kts 32°
2026-04-25 14:58 35.29625 -77.40436 36924 ft 490 kts 32°
2026-04-25 14:59 35.35174 -77.35576 36915 ft 490 kts 33°
2026-04-25 14:59 35.40698 -77.30681 36902 ft 490 kts 33°
2026-04-25 15:00 35.46222 -77.25770 36898 ft 490 kts 33°
2026-04-25 15:00 35.51747 -77.20856 36904 ft 490 kts 33°
2026-04-25 15:01 35.57222 -77.15980 36914 ft 490 kts 33°
2026-04-25 15:01 35.62740 -77.11058 36906 ft 491 kts 33°
2026-04-25 15:02 35.68272 -77.06115 36907 ft 492 kts 33°
2026-04-25 15:02 35.73796 -77.01169 36905 ft 492 kts 33°
2026-04-25 15:03 35.79326 -76.96210 36902 ft 492 kts 33°
2026-04-25 15:03 35.84862 -76.91238 36893 ft 493 kts 33°
2026-04-25 15:04 35.90420 -76.86300 36896 ft 491 kts 29°
2026-04-25 15:04 35.96313 -76.82113 36897 ft 488 kts 25°
2026-04-25 15:05 36.02271 -76.78109 36911 ft 488 kts 24°
2026-04-25 15:06 36.11234 -76.72128 36906 ft 488 kts 24°
2026-04-25 15:06 36.17208 -76.68118 36904 ft 488 kts 24°
2026-04-25 15:07 36.23181 -76.64096 36885 ft 488 kts 25°
2026-04-25 15:07 36.29152 -76.60065 36889 ft 489 kts 24°
2026-04-25 15:08 36.35128 -76.56027 36883 ft 489 kts 24°
2026-04-25 15:08 36.41107 -76.51979 36884 ft 489 kts 24°
2026-04-25 15:09 36.47075 -76.47930 36900 ft 489 kts 24°
2026-04-25 15:09 36.56013 -76.41855 36888 ft 488 kts 24°
2026-04-25 15:10 36.61967 -76.37799 36905 ft 488 kts 24°
2026-04-25 15:11 36.70901 -76.31698 36912 ft 488 kts 24°
2026-04-25 15:11 36.76865 -76.27618 36906 ft 490 kts 24°
2026-04-25 15:12 36.85825 -76.21473 36889 ft 490 kts 24°
2026-04-25 15:12 36.89768 -76.18764 36889 ft 490 kts 24°
2026-04-25 15:13 37.00751 -76.11200 36889 ft 490 kts 24°
2026-04-25 15:14 37.06722 -76.07077 36892 ft 490 kts 24°
2026-04-25 15:14 37.12687 -76.02953 36905 ft 489 kts 24°
2026-04-25 15:15 37.18809 -75.99303 36900 ft 486 kts 18°
2026-04-25 15:15 37.24986 -75.96021 36905 ft 486 kts 18°
2026-04-25 15:16 37.31198 -75.92654 36917 ft 487 kts 18°
2026-04-25 15:16 37.40482 -75.87459 36922 ft 488 kts 18°
2026-04-25 15:17 37.49792 -75.82197 36938 ft 489 kts 18°
2026-04-25 15:18 37.55997 -75.78685 36949 ft 489 kts 18°
2026-04-25 15:18 37.65280 -75.73423 36939 ft 487 kts 18°
2026-04-25 15:19 37.69411 -75.71077 36940 ft 486 kts 18°
2026-04-25 15:19 37.77627 -75.66404 36949 ft 487 kts 18°
2026-04-25 15:20 37.83765 -75.62757 36972 ft 492 kts 24°
2026-04-25 15:20 37.89562 -75.58045 36980 ft 496 kts 28°
2026-04-25 15:21 37.95262 -75.53096 36980 ft 497 kts 29°
2026-04-25 15:21 38.00945 -75.48104 36972 ft 497 kts 28°
2026-04-25 15:22 38.06636 -75.43110 36971 ft 498 kts 29°
2026-04-25 15:22 38.12226 -75.37917 36978 ft 497 kts 31°
2026-04-25 15:23 38.17740 -75.32624 36995 ft 496 kts 31°
2026-04-25 15:23 38.23256 -75.27362 37004 ft 496 kts 30°
2026-04-25 15:24 38.28788 -75.22119 37005 ft 496 kts 30°
2026-04-25 15:24 38.32489 -75.18614 37007 ft 496 kts 30°
2026-04-25 15:25 38.38923 -75.12510 37009 ft 496 kts 30°
2026-04-25 15:25 38.45376 -75.06371 37011 ft 496 kts 30°
2026-04-25 15:26 38.49918 -75.01892 37003 ft 497 kts 34°
2026-04-25 15:26 38.55113 -74.96042 37001 ft 498 kts 35°
2026-04-25 15:27 38.60393 -74.90351 37016 ft 496 kts 33°
2026-04-25 15:28 38.68427 -74.82030 37012 ft 495 kts 32°
2026-04-25 15:28 38.73781 -74.76472 37018 ft 496 kts 32°
2026-04-25 15:29 38.79063 -74.70762 37023 ft 498 kts 36°
2026-04-25 15:29 38.84154 -74.64706 37025 ft 500 kts 37°
2026-04-25 15:30 38.89237 -74.58619 37027 ft 499 kts 36°
2026-04-25 15:30 38.94344 -74.52584 37030 ft 499 kts 36°
2026-04-25 15:31 38.99578 -74.46767 37043 ft 496 kts 33°
2026-04-25 15:31 39.04906 -74.41137 37031 ft 496 kts 33°
2026-04-25 15:32 39.10220 -74.35479 37050 ft 496 kts 33°
2026-04-25 15:32 39.15504 -74.29778 37045 ft 495 kts 33°
2026-04-25 15:33 39.23384 -74.21218 37062 ft 494 kts 33°
2026-04-25 15:33 39.28639 -74.15495 37063 ft 494 kts 33°
2026-04-25 15:34 39.33885 -74.09774 37068 ft 494 kts 33°
2026-04-25 15:34 39.38243 -74.05012 37068 ft 494 kts 33°
2026-04-25 15:35 39.46958 -73.95463 37071 ft 493 kts 33°
2026-04-25 15:36 39.54786 -73.86844 37085 ft 493 kts 33°
2026-04-25 15:36 39.60002 -73.81088 37083 ft 493 kts 33°
2026-04-25 15:37 39.65220 -73.75320 37074 ft 493 kts 34°
2026-04-25 15:37 39.70433 -73.69547 37080 ft 493 kts 34°
2026-04-25 15:38 39.75647 -73.63759 37110 ft 493 kts 34°
2026-04-25 15:38 39.80842 -73.57979 37089 ft 491 kts 34°
2026-04-25 15:39 39.85791 -73.51792 37095 ft 499 kts 43°
2026-04-25 15:39 39.90239 -73.44827 37097 ft 501 kts 44°
2026-04-25 15:40 39.93863 -73.38945 37108 ft 502 kts 45°
2026-04-25 15:40 39.98945 -73.30646 37104 ft 500 kts 45°
2026-04-25 15:41 40.03284 -73.23572 37107 ft 499 kts 45°
2026-04-25 15:41 40.07621 -73.16504 37105 ft 498 kts 45°
2026-04-25 15:42 40.12251 -73.09870 37107 ft 492 kts 39°
2026-04-25 15:42 40.17008 -73.03472 37109 ft 490 kts 39°
2026-04-25 15:43 40.21785 -72.97097 37114 ft 490 kts 39°
2026-04-25 15:43 40.26553 -72.90717 37126 ft 490 kts 39°
2026-04-25 15:44 40.31306 -72.84328 37127 ft 489 kts 39°
2026-04-25 15:44 40.36044 -72.77940 37129 ft 488 kts 39°
2026-04-25 15:45 40.40743 -72.71595 37133 ft 488 kts 39°
2026-04-25 15:45 40.44705 -72.66235 37131 ft 488 kts 39°
2026-04-25 15:46 40.50194 -72.58790 37148 ft 488 kts 39°
2026-04-25 15:46 40.54906 -72.52386 37143 ft 487 kts 39°
2026-04-25 15:47 40.59608 -72.45981 37146 ft 487 kts 39°
2026-04-25 15:47 40.64307 -72.39567 37150 ft 487 kts 39°
2026-04-25 15:48 40.69003 -72.33143 37143 ft 487 kts 39°
2026-04-25 15:48 40.73697 -72.26708 37143 ft 487 kts 39°
2026-04-25 15:49 40.77936 -72.19624 37140 ft 501 kts 53°
2026-04-25 15:49 40.80736 -72.11072 37150 ft 512 kts 63°
2026-04-25 15:50 40.83087 -72.02173 37134 ft 514 kts 65°
2026-04-25 15:50 40.85378 -71.93227 37152 ft 514 kts 65°
2026-04-25 15:51 40.87311 -71.85742 37149 ft 514 kts 64°
2026-04-25 15:51 40.90016 -71.75340 37153 ft 515 kts 64°
2026-04-25 15:52 40.92343 -71.66383 37157 ft 515 kts 64°
2026-04-25 15:52 40.94678 -71.57424 37161 ft 515 kts 64°
2026-04-25 15:53 40.97042 -71.48485 37161 ft 515 kts 64°
2026-04-25 15:53 40.99403 -71.39544 37161 ft 515 kts 64°
2026-04-25 15:54 41.01702 -71.30551 37158 ft 517 kts 66°
2026-04-25 15:54 41.03643 -71.21353 37152 ft 519 kts 68°
2026-04-25 15:55 41.05522 -71.12112 37146 ft 518 kts 67°
2026-04-25 15:55 41.08441 -71.03618 37150 ft 498 kts 49°
2026-04-25 15:56 41.12290 -70.96021 37140 ft 496 kts 47°
2026-04-25 15:56 41.16278 -70.88573 37141 ft 495 kts 46°
2026-04-25 15:57 41.20268 -70.81114 37141 ft 495 kts 46°
2026-04-25 15:57 41.24205 -70.73680 37144 ft 495 kts 46°
2026-04-25 15:58 41.28152 -70.66177 37146 ft 495 kts 46°
2026-04-25 15:58 41.32093 -70.58663 37147 ft 495 kts 46°
2026-04-25 15:59 41.36035 -70.51132 37157 ft 495 kts 46°
2026-04-25 15:59 41.39949 -70.43633 37143 ft 492 kts 46°
2026-04-25 16:00 41.42563 -70.38616 37142 ft 492 kts 46°
2026-04-25 16:00 41.47752 -70.28641 37141 ft 492 kts 46°
2026-04-25 16:01 41.51647 -70.21131 37136 ft 492 kts 46°
2026-04-25 16:01 41.55529 -70.13620 37130 ft 490 kts 46°
2026-04-25 16:02 41.59391 -70.06133 37146 ft 489 kts 46°
2026-04-25 16:02 41.63249 -69.98640 37147 ft 489 kts 46°
2026-04-25 16:03 41.67104 -69.91131 37146 ft 489 kts 46°
2026-04-25 16:03 41.70946 -69.83629 37158 ft 489 kts 45°
2026-04-25 16:04 41.74651 -69.75963 37146 ft 498 kts 53°
2026-04-25 16:04 41.77660 -69.67546 37145 ft 503 kts 56°
2026-04-25 16:05 41.80529 -69.58989 37134 ft 503 kts 56°
2026-04-25 16:06 41.84798 -69.46128 37144 ft 503 kts 56°
2026-04-25 16:06 41.87625 -69.37629 37137 ft 502 kts 56°
2026-04-25 16:07 41.90474 -69.29060 37134 ft 502 kts 56°
2026-04-25 16:07 41.93313 -69.20495 37139 ft 502 kts 56°
2026-04-25 16:08 41.96141 -69.11930 37129 ft 501 kts 57°
2026-04-25 16:08 41.98962 -69.03363 37128 ft 501 kts 57°
2026-04-25 16:09 42.01774 -68.94795 37125 ft 501 kts 57°
2026-04-25 16:09 42.04582 -68.86215 37132 ft 501 kts 57°
2026-04-25 16:10 42.07381 -68.77631 37124 ft 501 kts 57°
2026-04-25 16:10 42.10175 -68.69038 37124 ft 501 kts 57°
2026-04-25 16:11 42.12966 -68.60427 37121 ft 501 kts 57°
2026-04-25 16:11 42.15751 -68.51808 37153 ft 502 kts 57°
2026-04-25 16:12 42.18528 -68.43183 37116 ft 503 kts 57°
2026-04-25 16:12 42.21307 -68.34523 37118 ft 503 kts 57°
2026-04-25 16:13 42.23613 -68.27315 37113 ft 503 kts 57°
2026-04-25 16:13 42.26379 -68.18642 37152 ft 503 kts 58°
2026-04-25 16:14 42.29593 -68.08535 37113 ft 504 kts 58°
2026-04-25 16:14 42.31903 -68.01247 37110 ft 504 kts 58°
2026-04-25 16:15 42.34655 -67.92539 37105 ft 504 kts 58°
2026-04-25 16:15 42.37384 -67.83871 37104 ft 504 kts 58°
2026-04-25 16:16 42.40124 -67.75144 37103 ft 504 kts 58°
2026-04-25 16:16 42.42877 -67.66344 37103 ft 504 kts 59°
2026-04-25 16:17 42.45589 -67.57650 37100 ft 505 kts 59°
2026-04-25 16:17 42.48311 -67.48891 37094 ft 505 kts 59°
2026-04-25 16:18 42.51028 -67.40120 37092 ft 505 kts 59°
2026-04-25 16:18 42.53738 -67.31342 37096 ft 505 kts 59°
2026-04-25 16:19 42.56444 -67.22550 37083 ft 505 kts 59°
2026-04-25 16:19 42.59141 -67.13757 37081 ft 505 kts 60°
2026-04-25 16:20 42.63176 -67.00545 37105 ft 505 kts 60°
2026-04-25 16:21 42.66901 -66.87117 37076 ft 507 kts 64°
2026-04-25 16:21 42.69233 -66.78080 37064 ft 506 kts 64°
2026-04-25 16:22 42.71592 -66.69065 37064 ft 506 kts 64°
2026-04-25 16:22 42.73968 -66.60065 37077 ft 506 kts 64°
2026-04-25 16:23 42.76343 -66.51067 37059 ft 505 kts 64°
2026-04-25 16:23 42.78709 -66.42063 37050 ft 505 kts 64°
2026-04-25 16:24 42.81067 -66.33055 37064 ft 505 kts 64°
2026-04-25 16:24 42.83415 -66.24044 37047 ft 505 kts 64°
2026-04-25 16:25 42.85759 -66.15016 37036 ft 505 kts 65°
2026-04-25 16:25 42.88091 -66.05999 37036 ft 504 kts 65°
2026-04-25 16:26 42.90414 -65.96982 37031 ft 504 kts 65°
2026-04-25 16:26 42.92733 -65.87949 37029 ft 504 kts 65°
2026-04-25 16:27 42.95044 -65.78914 37034 ft 504 kts 65°
2026-04-25 16:27 42.97338 -65.69900 37012 ft 502 kts 66°
2026-04-25 16:28 42.99623 -65.60899 37008 ft 501 kts 66°
2026-04-25 16:28 43.01898 -65.51898 37001 ft 502 kts 66°
2026-04-25 16:29 43.04169 -65.42882 37000 ft 502 kts 66°
2026-04-25 16:29 43.06433 -65.33857 36992 ft 502 kts 66°
2026-04-25 16:30 43.08678 -65.24873 36993 ft 503 kts 66°
2026-04-25 16:30 43.10934 -65.15812 36988 ft 503 kts 66°
2026-04-25 16:31 43.13182 -65.06742 36979 ft 503 kts 66°
2026-04-25 16:31 43.15423 -64.97669 36993 ft 503 kts 67°
2026-04-25 16:32 43.17657 -64.88586 36980 ft 503 kts 67°
2026-04-25 16:32 43.19880 -64.79513 36991 ft 503 kts 68°
2026-04-25 16:33 43.22095 -64.70435 36963 ft 501 kts 68°
2026-04-25 16:33 43.24294 -64.61388 36962 ft 500 kts 68°
2026-04-25 16:34 43.26486 -64.52335 36966 ft 499 kts 68°
2026-04-25 16:34 43.28658 -64.43324 36962 ft 497 kts 68°
2026-04-25 16:35 43.30826 -64.34303 36957 ft 497 kts 68°
2026-04-25 16:35 43.32982 -64.25291 36962 ft 497 kts 68°
2026-04-25 16:36 43.35126 -64.16292 36947 ft 496 kts 68°
2026-04-25 16:36 43.37260 -64.07299 37332 ft 493 kts 68°
2026-04-25 16:36 43.38320 -64.02820 37530 ft 493 kts 68°
2026-04-25 16:37 43.39379 -63.98336 37684 ft 493 kts 68°
2026-04-25 16:37 43.40439 -63.93840 37850 ft 494 kts 68°
2026-04-25 16:37 43.41482 -63.89408 37935 ft 496 kts 68°
2026-04-25 16:38 43.43606 -63.80358 37938 ft 497 kts 68°
2026-04-25 16:38 43.45722 -63.71294 37932 ft 498 kts 68°
2026-04-25 16:39 43.47831 -63.62221 37930 ft 498 kts 68°
2026-04-25 16:39 43.49934 -63.53141 37925 ft 498 kts 69°
2026-04-25 16:40 43.52030 -63.44056 37927 ft 498 kts 69°
2026-04-25 16:40 43.54119 -63.34964 37919 ft 498 kts 69°
2026-04-25 16:41 43.56201 -63.25862 37914 ft 498 kts 69°
2026-04-25 16:41 43.59312 -63.12193 37904 ft 498 kts 69°
2026-04-25 16:42 43.61379 -63.03066 37906 ft 498 kts 69°
2026-04-25 16:42 43.63438 -62.93934 37906 ft 498 kts 69°
2026-04-25 16:43 43.65487 -62.84805 37897 ft 498 kts 69°
2026-04-25 16:43 43.67531 -62.75663 37898 ft 498 kts 69°
2026-04-25 16:44 43.69567 -62.66515 37883 ft 498 kts 69°
2026-04-25 16:44 43.71598 -62.57351 37971 ft 499 kts 69°
2026-04-25 16:45 43.72611 -62.52765 38167 ft 498 kts 69°
2026-04-25 16:45 43.73620 -62.48190 38350 ft 497 kts 69°
2026-04-25 16:45 43.74625 -62.43618 38498 ft 498 kts 69°
2026-04-25 16:45 43.75632 -62.39032 38598 ft 498 kts 69°
2026-04-25 16:46 43.77642 -62.29851 38811 ft 498 kts 70°
2026-04-25 16:46 43.78969 -62.23766 38867 ft 501 kts 70°
2026-04-25 16:47 43.81643 -62.11445 38857 ft 502 kts 70°
2026-04-25 16:47 43.83643 -62.02186 38851 ft 502 kts 70°
2026-04-25 16:48 43.85636 -61.92914 38851 ft 503 kts 70°
2026-04-25 16:48 43.87625 -61.83621 38837 ft 503 kts 70°
2026-04-25 16:49 43.89605 -61.74332 38837 ft 503 kts 70°
2026-04-25 16:49 43.91580 -61.65024 38831 ft 503 kts 70°
2026-04-25 16:50 43.93547 -61.55711 38827 ft 503 kts 70°
2026-04-25 16:50 43.95509 -61.46380 38821 ft 504 kts 70°
2026-04-25 16:51 43.97465 -61.37033 38815 ft 504 kts 70°
2026-04-25 16:51 43.98769 -61.30779 38810 ft 504 kts 70°
2026-04-25 16:52 44.01355 -61.18318 38804 ft 504 kts 70°
2026-04-25 16:52 44.03291 -61.08940 38810 ft 505 kts 71°
2026-04-25 16:53 44.06183 -60.94852 38785 ft 506 kts 71°
2026-04-25 16:54 44.08103 -60.85444 38789 ft 506 kts 71°
2026-04-25 16:54 44.10014 -60.76032 38777 ft 506 kts 71°
2026-04-25 16:55 44.11919 -60.66610 38777 ft 506 kts 71°
2026-04-25 16:55 44.13816 -60.57182 38771 ft 506 kts 71°
2026-04-25 16:56 44.15704 -60.47754 38768 ft 506 kts 71°
2026-04-25 16:56 44.17585 -60.38315 38763 ft 506 kts 71°
2026-04-25 16:57 44.19458 -60.28871 38766 ft 506 kts 71°
2026-04-25 16:57 44.21321 -60.19433 38753 ft 505 kts 72°
2026-04-25 16:58 44.23178 -60.09981 38741 ft 505 kts 71°
2026-04-25 16:58 44.25013 -60.00598 38740 ft 505 kts 72°
2026-04-25 16:59 44.26853 -59.91139 38741 ft 505 kts 72°
2026-04-25 16:59 44.28689 -59.81661 38731 ft 506 kts 72°
2026-04-25 17:00 44.30510 -59.72205 38724 ft 504 kts 72°
2026-04-25 17:00 44.32324 -59.62743 38719 ft 504 kts 72°
2026-04-25 17:01 44.34130 -59.53280 38720 ft 504 kts 72°
2026-04-25 17:01 44.35928 -59.43806 38715 ft 504 kts 72°
2026-04-25 17:02 44.37717 -59.34338 38711 ft 504 kts 72°
2026-04-25 17:02 44.39200 -59.26453 38709 ft 505 kts 72°
2026-04-25 17:03 44.40977 -59.16956 38700 ft 505 kts 72°
2026-04-25 17:03 44.42747 -59.07455 38697 ft 505 kts 72°
2026-04-25 17:04 44.44508 -58.97948 38691 ft 505 kts 72°
2026-04-25 17:04 44.46262 -58.88432 38688 ft 505 kts 72°
2026-04-25 17:05 44.48007 -58.78919 38683 ft 505 kts 72°
2026-04-25 17:05 44.50614 -58.64613 38674 ft 505 kts 73°
2026-04-25 17:06 44.52342 -58.55073 38674 ft 505 kts 73°
2026-04-25 17:06 44.54062 -58.45519 38666 ft 505 kts 73°
2026-04-25 17:07 44.55773 -58.35974 38667 ft 505 kts 73°
2026-04-25 17:07 44.57474 -58.26429 38651 ft 505 kts 73°
2026-04-25 17:08 44.59169 -58.16870 38650 ft 505 kts 73°
2026-04-25 17:08 44.60857 -58.07300 38644 ft 505 kts 73°
2026-04-25 17:09 44.62536 -57.97726 38645 ft 505 kts 73°
2026-04-25 17:09 44.64209 -57.88139 38636 ft 506 kts 73°
2026-04-25 17:10 44.65876 -57.78534 38633 ft 506 kts 74°
2026-04-25 17:10 44.67535 -57.68922 38625 ft 506 kts 74°
2026-04-25 17:11 44.69186 -57.59311 38623 ft 506 kts 74°
2026-04-25 17:11 44.70831 -57.49678 38615 ft 507 kts 74°
2026-04-25 17:12 44.72470 -57.40022 38606 ft 508 kts 74°
2026-04-25 17:12 44.74103 -57.30350 38603 ft 508 kts 74°
2026-04-25 17:13 44.75453 -57.22316 38601 ft 508 kts 74°
2026-04-25 17:13 44.77343 -57.11004 38602 ft 509 kts 75°
2026-04-25 17:14 44.78943 -57.01369 38593 ft 509 kts 75°
2026-04-25 17:14 44.80547 -56.91658 38586 ft 509 kts 75°
2026-04-25 17:15 44.82140 -56.81954 38578 ft 509 kts 75°
2026-04-25 17:15 44.83727 -56.72227 38574 ft 509 kts 75°
2026-04-25 17:16 44.85305 -56.62507 38565 ft 509 kts 75°
2026-04-25 17:16 44.86882 -56.52732 38562 ft 508 kts 75°
2026-04-25 17:17 44.88443 -56.43003 38552 ft 508 kts 75°
2026-04-25 17:17 44.89983 -56.33347 38552 ft 509 kts 75°
2026-04-25 17:18 44.91527 -56.23616 38539 ft 509 kts 76°
2026-04-25 17:18 44.93062 -56.13872 38545 ft 508 kts 76°
2026-04-25 17:19 44.94584 -56.04159 38537 ft 507 kts 75°
2026-04-25 17:19 44.96099 -55.94433 38529 ft 508 kts 75°
2026-04-25 17:20 44.97610 -55.84678 38524 ft 509 kts 75°
2026-04-25 17:20 44.99112 -55.74913 38516 ft 509 kts 76°
2026-04-25 17:21 45.00607 -55.65141 38515 ft 508 kts 76°
2026-04-25 17:21 45.02089 -55.55396 38513 ft 507 kts 76°
2026-04-25 17:22 45.03313 -55.47296 38508 ft 507 kts 76°
2026-04-25 17:22 45.05027 -55.35893 38491 ft 508 kts 76°
2026-04-25 17:23 45.06489 -55.26100 38496 ft 509 kts 76°
2026-04-25 17:23 45.07942 -55.16301 38482 ft 508 kts 76°
2026-04-25 17:24 45.09383 -55.06520 38474 ft 507 kts 76°
2026-04-25 17:24 45.10815 -54.96745 38468 ft 507 kts 75°
2026-04-25 17:25 45.12240 -54.86954 38469 ft 507 kts 76°
2026-04-25 17:25 45.13656 -54.77163 38464 ft 508 kts 76°
2026-04-25 17:26 45.15066 -54.67351 38458 ft 508 kts 76°
2026-04-25 17:26 45.16464 -54.57554 38443 ft 507 kts 77°
2026-04-25 17:27 45.17855 -54.47747 38444 ft 508 kts 77°
2026-04-25 17:27 45.18781 -54.41179 38435 ft 508 kts 76°
2026-04-25 17:28 45.20612 -54.28118 38427 ft 508 kts 77°
2026-04-25 17:28 45.21980 -54.18281 38425 ft 508 kts 77°
2026-04-25 17:29 45.23341 -54.08428 38421 ft 509 kts 77°
2026-04-25 17:29 45.24696 -53.98557 38419 ft 510 kts 77°
2026-04-25 17:30 45.26042 -53.88674 38415 ft 510 kts 77°
2026-04-25 17:30 45.27379 -53.78799 38407 ft 510 kts 77°
2026-04-25 17:31 45.28708 -53.68915 38406 ft 510 kts 77°
2026-04-25 17:31 45.30030 -53.59013 38397 ft 511 kts 78°
2026-04-25 17:32 45.31347 -53.49086 38398 ft 513 kts 78°
2026-04-25 17:32 45.32657 -53.39134 38378 ft 513 kts 77°
2026-04-25 17:33 45.33959 -53.29170 38383 ft 513 kts 78°
2026-04-25 17:33 45.35244 -53.19268 38374 ft 513 kts 78°
2026-04-25 17:34 45.36530 -53.09292 38369 ft 513 kts 77°
2026-04-25 17:34 45.37806 -52.99317 38366 ft 513 kts 78°
2026-04-25 17:35 45.39076 -52.89315 38362 ft 514 kts 78°
2026-04-25 17:35 45.40338 -52.79308 38350 ft 514 kts 78°
2026-04-25 17:36 45.41593 -52.69278 38343 ft 515 kts 78°
2026-04-25 17:36 45.42838 -52.59254 38338 ft 515 kts 79°
2026-04-25 17:37 45.44075 -52.49222 38467 ft 515 kts 79°
2026-04-25 17:37 45.44691 -52.44196 38608 ft 514 kts 78°
2026-04-25 17:37 45.45305 -52.39174 38663 ft 515 kts 79°
2026-04-25 17:38 45.46122 -52.32449 38748 ft 516 kts 79°
2026-04-25 17:38 45.47134 -52.24078 38900 ft 516 kts 79°
2026-04-25 17:38 45.47741 -52.19034 38982 ft 516 kts 79°
2026-04-25 17:39 45.48946 -52.08959 39166 ft 515 kts 79°
2026-04-25 17:39 45.50406 -51.98980 39323 ft 513 kts 70°
2026-04-25 17:40 45.52743 -51.89359 39413 ft 514 kts 69°
2026-04-25 17:40 45.53978 -51.84571 39524 ft 513 kts 69°
2026-04-25 17:40 45.55222 -51.79808 39582 ft 513 kts 69°
2026-04-25 17:41 45.57712 -51.70266 39699 ft 513 kts 69°
2026-04-25 17:41 45.60182 -51.60707 39822 ft 513 kts 69°
2026-04-25 17:42 45.62618 -51.51203 39960 ft 512 kts 69°
2026-04-25 17:42 45.65071 -51.41582 40040 ft 512 kts 69°
2026-04-25 17:43 45.67500 -51.32018 40166 ft 511 kts 69°
2026-04-25 17:43 45.69921 -51.22445 40241 ft 512 kts 69°
2026-04-25 17:44 45.72335 -51.12864 40276 ft 512 kts 70°
2026-04-25 17:44 45.74742 -51.03267 40273 ft 512 kts 70°
2026-04-25 17:45 45.76330 -50.96917 40264 ft 512 kts 70°
2026-04-25 17:45 45.79513 -50.84127 40256 ft 513 kts 70°
2026-04-25 17:46 45.81905 -50.74474 40259 ft 515 kts 70°
2026-04-25 17:46 45.84292 -50.64795 40247 ft 515 kts 70°
2026-04-25 17:47 45.86673 -50.55102 40240 ft 515 kts 70°
2026-04-25 17:47 45.89045 -50.45399 40240 ft 515 kts 70°
2026-04-25 17:48 45.92189 -50.32479 40234 ft 515 kts 70°
2026-04-25 17:49 45.94539 -50.22770 40226 ft 515 kts 71°
2026-04-25 17:49 45.96884 -50.13043 40223 ft 515 kts 71°
2026-04-25 17:50 45.99217 -50.03322 40216 ft 515 kts 71°
2026-04-25 17:50 46.01582 -49.93579 40210 ft 516 kts 70°
2026-04-25 17:51 46.04034 -49.83878 40210 ft 516 kts 70°
2026-04-25 17:51 46.06484 -49.74178 40211 ft 516 kts 70°
2026-04-25 17:52 46.08915 -49.64450 40210 ft 516 kts 70°
2026-04-25 17:52 46.11326 -49.54725 40208 ft 515 kts 70°
2026-04-25 17:53 46.13728 -49.44993 40204 ft 515 kts 70°
2026-04-25 17:53 46.16119 -49.35260 40202 ft 515 kts 71°
2026-04-25 17:54 46.18502 -49.25524 40200 ft 515 kts 71°
2026-04-25 17:54 46.20881 -49.15761 40204 ft 515 kts 71°
2026-04-25 17:55 46.23238 -49.06047 40206 ft 517 kts 71°
2026-04-25 17:55 46.25627 -48.96155 40201 ft 518 kts 71°
2026-04-25 17:56 46.27977 -48.86384 40203 ft 518 kts 71°
2026-04-25 17:56 46.30336 -48.76530 40216 ft 519 kts 71°
2026-04-25 17:57 46.32689 -48.66660 40214 ft 519 kts 71°
2026-04-25 17:57 46.35032 -48.56787 40217 ft 519 kts 72°
2026-04-25 17:58 46.37370 -48.46890 40220 ft 519 kts 72°
2026-04-25 17:58 46.39698 -48.36991 40238 ft 519 kts 72°
2026-04-25 17:59 46.42012 -48.27104 40231 ft 519 kts 72°
2026-04-25 17:59 46.44324 -48.17185 40240 ft 520 kts 72°
2026-04-25 18:00 46.46631 -48.07237 40252 ft 521 kts 72°
2026-04-25 18:00 46.48935 -47.97262 40260 ft 521 kts 72°
2026-04-25 18:01 46.51227 -47.87289 40266 ft 521 kts 73°
2026-04-25 18:01 46.53509 -47.77314 40262 ft 521 kts 73°
2026-04-25 18:02 46.55781 -47.67337 40274 ft 520 kts 73°
2026-04-25 18:02 46.58047 -47.57342 40289 ft 520 kts 73°
2026-04-25 18:03 46.60296 -47.47374 40290 ft 519 kts 73°
2026-04-25 18:03 46.62540 -47.37381 40208 ft 519 kts 73°
2026-04-25 18:03 46.63658 -47.32385 39715 ft 520 kts 73°
2026-04-25 18:04 46.64774 -47.27388 39401 ft 520 kts 74°
2026-04-25 18:04 46.66989 -47.17425 39315 ft 521 kts 74°
2026-04-25 18:05 46.69211 -47.07387 39321 ft 521 kts 74°
2026-04-25 18:05 46.71428 -46.97329 39328 ft 521 kts 74°
2026-04-25 18:06 46.73632 -46.87279 39336 ft 521 kts 75°
2026-04-25 18:06 46.75827 -46.77219 39344 ft 520 kts 75°
2026-04-25 18:07 46.78013 -46.67155 39345 ft 520 kts 75°
2026-04-25 18:07 46.80188 -46.57086 39357 ft 520 kts 74°
2026-04-25 18:08 46.82354 -46.47016 39360 ft 520 kts 75°
2026-04-25 18:08 46.84511 -46.36941 39359 ft 520 kts 75°
2026-04-25 18:09 46.86661 -46.26842 39375 ft 520 kts 75°
2026-04-25 18:09 46.88802 -46.16738 39390 ft 520 kts 75°
2026-04-25 18:10 46.90934 -46.06627 39393 ft 520 kts 75°
2026-04-25 18:10 46.93056 -45.96517 39392 ft 520 kts 75°
2026-04-25 18:11 46.95168 -45.86398 39400 ft 520 kts 76°
2026-04-25 18:11 46.97275 -45.76259 39412 ft 520 kts 76°
2026-04-25 18:12 46.99355 -45.66190 39412 ft 520 kts 75°
2026-04-25 18:12 47.01456 -45.55977 39420 ft 519 kts 76°
2026-04-25 18:13 47.03515 -45.45916 39427 ft 519 kts 76°
2026-04-25 18:13 47.05580 -45.35771 39438 ft 519 kts 76°
2026-04-25 18:14 47.08660 -45.20542 39433 ft 519 kts 76°
2026-04-25 18:14 47.10701 -45.10387 39451 ft 519 kts 76°
2026-04-25 18:15 47.12732 -45.00225 39456 ft 519 kts 76°
2026-04-25 18:15 47.14754 -44.90059 39462 ft 519 kts 76°
2026-04-25 18:16 47.16766 -44.79888 39455 ft 518 kts 76°
2026-04-25 18:17 47.19767 -44.64625 39472 ft 518 kts 77°
2026-04-25 18:17 47.21754 -44.54450 39478 ft 518 kts 77°
2026-04-25 18:18 47.23734 -44.44256 39475 ft 518 kts 77°
2026-04-25 18:18 47.25707 -44.34043 39478 ft 519 kts 77°
2026-04-25 18:19 47.27675 -44.23799 39495 ft 520 kts 77°
2026-04-25 18:19 47.29633 -44.13559 39501 ft 520 kts 77°
2026-04-25 18:20 47.31583 -44.03303 39500 ft 520 kts 77°
2026-04-25 18:20 47.33521 -43.93051 39496 ft 520 kts 77°
2026-04-25 18:21 47.35452 -43.82784 39504 ft 519 kts 78°
2026-04-25 18:21 47.37373 -43.72511 39513 ft 519 kts 78°
2026-04-25 18:22 47.39284 -43.62234 39517 ft 519 kts 78°
2026-04-25 18:22 47.41188 -43.51941 39509 ft 519 kts 78°
2026-04-25 18:23 47.43081 -43.41652 39525 ft 519 kts 78°
2026-04-25 18:23 47.44966 -43.31345 39526 ft 520 kts 78°
2026-04-25 18:24 47.46841 -43.21032 39526 ft 520 kts 78°
2026-04-25 18:24 47.48710 -43.10699 39520 ft 520 kts 78°
2026-04-25 18:25 47.50567 -43.00377 39530 ft 519 kts 78°
2026-04-25 18:25 47.52411 -42.90060 39530 ft 519 kts 79°
2026-04-25 18:26 47.54246 -42.79737 39532 ft 519 kts 79°
2026-04-25 18:26 47.56072 -42.69407 39537 ft 519 kts 79°
2026-04-25 18:27 47.57876 -42.59141 39539 ft 518 kts 79°
2026-04-25 18:27 47.59682 -42.48807 39539 ft 518 kts 79°
2026-04-25 18:28 47.61476 -42.38475 39540 ft 518 kts 79°
2026-04-25 18:28 47.63264 -42.28124 39542 ft 518 kts 79°
2026-04-25 18:29 47.65924 -42.12608 39545 ft 518 kts 79°
2026-04-25 18:30 47.69439 -41.91889 39547 ft 517 kts 80°
2026-04-25 18:30 47.71182 -41.81521 39553 ft 517 kts 80°
2026-04-25 18:31 47.72916 -41.71146 39553 ft 517 kts 80°
2026-04-25 18:31 47.74639 -41.60771 39553 ft 517 kts 80°
2026-04-25 18:32 47.76351 -41.50396 39553 ft 517 kts 80°
2026-04-25 18:32 47.78057 -41.40002 39543 ft 518 kts 80°
2026-04-25 18:33 47.79744 -41.29657 39556 ft 519 kts 80°
2026-04-25 18:33 47.81436 -41.19217 39556 ft 519 kts 81°
2026-04-25 18:34 47.83117 -41.08780 39559 ft 519 kts 81°
2026-04-25 18:34 47.84788 -40.98341 39560 ft 519 kts 81°
2026-04-25 18:35 47.86449 -40.87894 39555 ft 518 kts 81°
2026-04-25 18:35 47.88100 -40.77447 39561 ft 518 kts 81°
2026-04-25 18:36 47.89742 -40.66990 39564 ft 518 kts 81°
2026-04-25 18:36 47.91374 -40.56528 39565 ft 518 kts 81°
2026-04-25 18:37 47.92996 -40.46063 39551 ft 518 kts 81°
2026-04-25 18:37 47.94610 -40.35582 39571 ft 520 kts 82°
2026-04-25 18:38 47.95948 -40.26841 39578 ft 520 kts 82°
2026-04-25 18:38 47.97550 -40.16316 39585 ft 520 kts 82°
2026-04-25 18:39 47.99141 -40.05790 39576 ft 520 kts 82°
2026-04-25 18:39 48.00191 -39.95182 39586 ft 514 kts 90°
2026-04-25 18:40 48.00712 -39.84535 39593 ft 514 kts 91°
2026-04-25 18:40 48.01138 -39.73881 39594 ft 514 kts 91°
2026-04-25 18:41 48.01554 -39.63242 39591 ft 514 kts 91°
2026-04-25 18:41 48.01972 -39.52591 39598 ft 515 kts 92°
2026-04-25 18:42 48.02317 -39.43683 39603 ft 518 kts 92°
2026-04-25 18:42 48.02797 -39.31101 39604 ft 519 kts 92°
2026-04-25 18:43 48.03197 -39.20352 39611 ft 518 kts 92°
2026-04-25 18:43 48.03585 -39.09599 39614 ft 518 kts 92°
2026-04-25 18:44 48.03962 -38.98848 39611 ft 519 kts 92°
2026-04-25 18:44 48.04331 -38.88058 39620 ft 520 kts 92°
2026-04-25 18:45 48.04689 -38.77259 39614 ft 522 kts 92°
2026-04-25 18:45 48.05040 -38.66395 39625 ft 524 kts 92°
2026-04-25 18:46 48.05382 -38.55511 39621 ft 524 kts 92°
2026-04-25 18:46 48.05714 -38.44634 39626 ft 523 kts 92°
2026-04-25 18:47 48.06034 -38.33794 39627 ft 523 kts 92°
2026-04-25 18:47 48.06341 -38.23006 39628 ft 523 kts 92°
2026-04-25 18:48 48.06640 -38.12148 39611 ft 522 kts 92°
2026-04-25 18:48 48.06929 -38.01287 39619 ft 523 kts 92°
2026-04-25 18:49 48.07208 -37.90442 39633 ft 522 kts 92°
2026-04-25 18:49 48.07477 -37.79603 39639 ft 521 kts 92°
2026-04-25 18:50 48.07734 -37.68778 39645 ft 521 kts 92°
2026-04-25 18:50 48.07983 -37.57873 39644 ft 521 kts 92°
2026-04-25 18:51 48.08181 -37.48875 39643 ft 521 kts 92°
2026-04-25 18:51 48.08446 -37.36352 39629 ft 516 kts 92°
2026-04-25 18:52 48.08661 -37.25631 39660 ft 515 kts 92°
2026-04-25 18:52 48.08865 -37.14929 39665 ft 515 kts 92°
2026-04-25 18:53 48.09059 -37.04213 39662 ft 515 kts 92°
2026-04-25 18:53 48.09244 -36.93506 39667 ft 515 kts 92°
2026-04-25 18:54 48.09502 -36.77446 39670 ft 515 kts 92°
2026-04-25 18:55 48.09662 -36.66744 39677 ft 515 kts 93°
2026-04-25 18:55 48.09812 -36.56038 39680 ft 515 kts 93°
2026-04-25 18:56 48.09952 -36.45307 39679 ft 515 kts 93°
2026-04-25 18:56 48.10082 -36.34605 39691 ft 514 kts 93°
2026-04-25 18:57 48.10202 -36.23919 39700 ft 514 kts 93°
2026-04-25 18:57 48.10312 -36.13234 39700 ft 514 kts 93°
2026-04-25 18:58 48.10412 -36.02555 39713 ft 514 kts 93°
2026-04-25 18:58 48.10543 -35.86524 39703 ft 514 kts 94°
2026-04-25 18:59 48.10684 -35.65075 39727 ft 516 kts 94°
2026-04-25 19:00 48.10764 -35.48956 39738 ft 516 kts 94°
2026-04-25 19:01 48.10821 -35.32848 39749 ft 516 kts 94°
2026-04-25 19:01 48.10847 -35.22105 39757 ft 516 kts 94°
2026-04-25 19:02 48.10866 -35.05987 39761 ft 517 kts 94°
2026-04-25 19:03 48.10866 -34.93406 39774 ft 517 kts 94°
2026-04-25 19:03 48.10849 -34.79086 39779 ft 518 kts 94°
2026-04-25 19:04 48.10808 -34.62919 39787 ft 518 kts 94°
2026-04-25 19:05 48.10718 -34.41378 39800 ft 518 kts 94°
2026-04-25 19:06 48.10659 -34.30685 39795 ft 516 kts 94°
2026-04-25 19:06 48.10552 -34.14613 39813 ft 515 kts 94°
2026-04-25 19:07 48.10421 -33.98556 39814 ft 515 kts 94°
2026-04-25 19:08 48.10268 -33.82495 39825 ft 514 kts 94°
2026-04-25 19:09 48.10053 -33.62975 39840 ft 512 kts 95°
2026-04-25 19:10 48.09828 -33.45201 39850 ft 512 kts 95°
2026-04-25 19:10 48.09679 -33.34558 39857 ft 512 kts 95°
2026-04-25 19:11 48.09522 -33.23910 39870 ft 511 kts 95°
2026-04-25 19:11 48.09355 -33.13283 39884 ft 511 kts 95°
2026-04-25 19:12 48.09177 -33.02650 39884 ft 511 kts 95°
2026-04-25 19:12 48.08990 -32.92015 39875 ft 511 kts 95°
2026-04-25 19:13 48.08794 -32.81401 39889 ft 511 kts 95°
2026-04-25 19:13 48.08587 -32.70785 39907 ft 511 kts 95°
2026-04-25 19:14 48.08371 -32.60159 39906 ft 511 kts 95°
2026-04-25 19:14 48.08145 -32.49534 39913 ft 511 kts 95°
2026-04-25 19:15 48.07909 -32.38920 39920 ft 511 kts 95°
2026-04-25 19:15 48.07664 -32.28310 39923 ft 511 kts 95°
2026-04-25 19:16 48.07408 -32.17700 39918 ft 511 kts 95°
2026-04-25 19:16 48.07143 -32.07089 39942 ft 510 kts 95°
2026-04-25 19:17 48.06869 -31.96481 39940 ft 510 kts 95°
2026-04-25 19:17 48.06585 -31.85890 39954 ft 510 kts 95°
2026-04-25 19:18 48.06291 -31.75293 39952 ft 510 kts 96°
2026-04-25 19:18 48.05989 -31.64765 39961 ft 510 kts 96°
2026-04-25 19:19 48.05675 -31.54172 39968 ft 510 kts 96°
2026-04-25 19:19 48.05352 -31.43580 39948 ft 510 kts 96°
2026-04-25 19:20 48.05020 -31.32994 39968 ft 510 kts 96°
2026-04-25 19:20 48.04678 -31.22425 39978 ft 509 kts 96°
2026-04-25 19:21 48.04326 -31.11857 39978 ft 509 kts 96°
2026-04-25 19:21 48.03780 -30.95994 40005 ft 509 kts 96°
2026-04-25 19:22 48.03404 -30.85430 40002 ft 509 kts 96°
2026-04-25 19:23 48.02822 -30.69595 39992 ft 509 kts 96°
2026-04-25 19:23 48.02288 -30.55544 40016 ft 509 kts 96°
2026-04-25 19:24 48.01875 -30.44991 40016 ft 509 kts 96°
2026-04-25 19:25 48.01022 -30.23903 40024 ft 509 kts 96°
2026-04-25 19:25 48.00580 -30.13353 40025 ft 509 kts 96°
2026-04-25 19:26 48.00137 -30.02793 40033 ft 510 kts 95°
2026-04-25 19:26 48.00337 -29.92178 40031 ft 512 kts 89°
2026-04-25 19:27 48.00688 -29.83355 40038 ft 512 kts 88°
2026-04-25 19:27 48.01222 -29.70944 40042 ft 512 kts 88°
2026-04-25 19:28 48.01664 -29.60308 40048 ft 513 kts 88°
2026-04-25 19:28 48.02088 -29.49669 40050 ft 513 kts 88°
2026-04-25 19:29 48.02499 -29.39027 40054 ft 513 kts 89°
2026-04-25 19:29 48.02900 -29.28383 40057 ft 513 kts 89°
2026-04-25 19:30 48.03291 -29.17732 40063 ft 514 kts 88°
2026-04-25 19:30 48.03673 -29.07068 40065 ft 514 kts 89°
2026-04-25 19:31 48.04046 -28.96403 40050 ft 514 kts 89°
2026-04-25 19:31 48.04408 -28.85743 40071 ft 514 kts 88°
2026-04-25 19:32 48.04758 -28.75152 40070 ft 514 kts 88°
2026-04-25 19:32 48.05046 -28.66218 40072 ft 514 kts 88°
2026-04-25 19:33 48.05435 -28.53794 40075 ft 515 kts 88°
2026-04-25 19:33 48.05760 -28.43037 40078 ft 515 kts 89°
2026-04-25 19:34 48.06071 -28.32427 40079 ft 515 kts 88°
2026-04-25 19:34 48.06375 -28.21723 40080 ft 515 kts 88°
2026-04-25 19:35 48.06669 -28.11022 40086 ft 515 kts 89°
2026-04-25 19:35 48.06954 -28.00317 40086 ft 515 kts 89°
2026-04-25 19:36 48.07228 -27.89609 40090 ft 515 kts 89°
2026-04-25 19:36 48.07492 -27.78901 40091 ft 515 kts 88°
2026-04-25 19:37 48.07746 -27.68216 40100 ft 514 kts 88°
2026-04-25 19:37 48.07990 -27.57536 40098 ft 514 kts 89°
2026-04-25 19:38 48.08224 -27.46843 40097 ft 514 kts 89°
2026-04-25 19:38 48.08447 -27.36168 40098 ft 513 kts 88°
2026-04-25 19:39 48.08661 -27.25509 40102 ft 512 kts 89°
2026-04-25 19:39 48.08864 -27.14882 40105 ft 511 kts 89°
2026-04-25 19:40 48.09057 -27.04250 40103 ft 511 kts 89°
2026-04-25 19:40 48.09241 -26.93617 40104 ft 511 kts 89°
2026-04-25 19:41 48.09414 -26.82992 40107 ft 511 kts 89°
2026-04-25 19:41 48.09524 -26.75958 40108 ft 510 kts 89°
2026-04-25 19:42 48.09732 -26.61768 40110 ft 510 kts 89°
2026-04-25 19:42 48.09876 -26.51143 40110 ft 510 kts 89°
2026-04-25 19:43 48.10009 -26.40605 40110 ft 509 kts 89°
2026-04-25 19:43 48.10134 -26.30025 40110 ft 509 kts 89°
2026-04-25 19:44 48.10248 -26.19443 40110 ft 508 kts 89°
2026-04-25 19:44 48.10353 -26.08878 40113 ft 508 kts 89°
2026-04-25 19:45 48.10448 -25.98302 40119 ft 508 kts 89°
2026-04-25 19:45 48.10533 -25.87721 40115 ft 508 kts 89°
2026-04-25 19:46 48.10609 -25.77146 40115 ft 508 kts 90°
2026-04-25 19:46 48.10675 -25.66590 40116 ft 508 kts 90°
2026-04-25 19:47 48.10731 -25.56020 40119 ft 508 kts 90°
2026-04-25 19:47 48.10777 -25.45460 40116 ft 508 kts 90°
2026-04-25 19:48 48.10814 -25.34887 40116 ft 508 kts 90°
2026-04-25 19:48 48.10841 -25.24318 40115 ft 508 kts 90°
2026-04-25 19:49 48.10854 -25.17248 40117 ft 508 kts 90°
2026-04-25 19:49 48.10866 -25.03172 40118 ft 508 kts 90°
2026-04-25 19:50 48.10860 -24.87327 40113 ft 507 kts 90°
2026-04-25 19:51 48.10843 -24.76769 40112 ft 507 kts 90°
2026-04-25 19:51 48.10817 -24.66217 40113 ft 507 kts 90°
2026-04-25 19:52 48.10781 -24.55664 40113 ft 507 kts 90°
2026-04-25 19:52 48.10736 -24.45107 40113 ft 506 kts 91°
2026-04-25 19:53 48.10681 -24.34588 40109 ft 506 kts 91°
2026-04-25 19:53 48.10616 -24.24047 40110 ft 506 kts 91°
2026-04-25 19:54 48.10542 -24.13526 40112 ft 506 kts 91°
2026-04-25 19:54 48.10458 -24.02997 40113 ft 506 kts 91°
2026-04-25 19:55 48.10365 -23.92476 40102 ft 505 kts 91°
2026-04-25 19:55 48.10262 -23.81969 40113 ft 505 kts 91°
2026-04-25 19:56 48.10150 -23.71463 40110 ft 505 kts 91°
2026-04-25 19:56 48.10028 -23.60951 40108 ft 505 kts 91°
2026-04-25 19:57 48.09897 -23.50518 40112 ft 505 kts 91°
2026-04-25 19:57 48.09756 -23.40010 40110 ft 505 kts 91°
2026-04-25 19:58 48.09605 -23.29514 40108 ft 505 kts 92°
2026-04-25 19:58 48.09445 -23.19006 40108 ft 505 kts 92°
2026-04-25 19:59 48.09275 -23.08506 40112 ft 505 kts 92°
2026-04-25 19:59 48.09096 -22.98001 40107 ft 505 kts 92°
2026-04-25 20:00 48.08907 -22.87490 40108 ft 505 kts 92°
2026-04-25 20:00 48.08708 -22.76989 40111 ft 506 kts 92°
2026-04-25 20:01 48.08392 -22.61215 40108 ft 505 kts 92°
2026-04-25 20:01 48.08170 -22.50715 40105 ft 505 kts 92°
2026-04-25 20:02 48.07938 -22.40212 40105 ft 505 kts 92°
2026-04-25 20:02 48.07696 -22.29712 40102 ft 505 kts 92°
2026-04-25 20:03 48.07445 -22.19215 40102 ft 505 kts 92°
2026-04-25 20:03 48.07184 -22.08713 40102 ft 505 kts 92°
2026-04-25 20:04 48.06914 -21.98228 40102 ft 505 kts 92°
2026-04-25 20:04 48.06634 -21.87739 40101 ft 505 kts 93°
2026-04-25 20:05 48.06344 -21.77233 40105 ft 506 kts 93°
2026-04-25 20:05 48.06045 -21.66732 40105 ft 505 kts 93°
2026-04-25 20:06 48.05737 -21.56248 40102 ft 505 kts 93°
2026-04-25 20:06 48.05418 -21.45743 40102 ft 505 kts 93°
2026-04-25 20:07 48.05091 -21.35265 40102 ft 505 kts 93°
2026-04-25 20:07 48.04754 -21.24781 40100 ft 505 kts 93°
2026-04-25 20:08 48.04408 -21.14308 40105 ft 504 kts 93°
2026-04-25 20:08 48.04052 -21.03846 40105 ft 504 kts 93°
2026-04-25 20:09 48.03690 -20.93458 40100 ft 504 kts 93°
2026-04-25 20:09 48.03377 -20.84705 40096 ft 505 kts 94°
2026-04-25 20:10 48.02931 -20.72531 40102 ft 504 kts 94°
2026-04-25 20:10 48.02602 -20.63765 40102 ft 504 kts 94°
2026-04-25 20:11 48.02201 -20.53311 40100 ft 504 kts 94°
2026-04-25 20:11 48.01790 -20.42858 40097 ft 504 kts 94°
2026-04-25 20:12 48.01369 -20.32395 40096 ft 504 kts 94°
2026-04-25 20:12 48.01013 -20.23719 40102 ft 504 kts 94°
2026-04-25 20:13 48.00501 -20.11511 40097 ft 504 kts 94°
2026-04-25 20:13 48.00090 -20.01057 40094 ft 504 kts 91°
2026-04-25 20:14 48.00191 -19.90593 40101 ft 504 kts 89°
2026-04-25 20:14 48.00398 -19.80119 40102 ft 505 kts 89°
2026-04-25 20:15 48.00617 -19.69648 40104 ft 505 kts 89°
2026-04-25 20:15 48.00820 -19.59176 40099 ft 505 kts 89°
2026-04-25 20:16 48.01007 -19.48704 40104 ft 505 kts 89°
2026-04-25 20:16 48.01183 -19.38219 40102 ft 505 kts 89°
2026-04-25 20:17 48.01348 -19.27813 40101 ft 505 kts 89°
2026-04-25 20:17 48.01505 -19.17334 40107 ft 505 kts 89°
2026-04-25 20:18 48.01652 -19.06856 40109 ft 505 kts 90°
2026-04-25 20:18 48.01790 -18.96383 40112 ft 505 kts 90°
2026-04-25 20:19 48.01918 -18.85898 40112 ft 505 kts 90°
2026-04-25 20:19 48.02037 -18.75421 40116 ft 505 kts 90°
2026-04-25 20:20 48.02146 -18.64937 40118 ft 505 kts 90°
2026-04-25 20:20 48.02246 -18.54459 40114 ft 505 kts 90°
2026-04-25 20:21 48.02336 -18.43979 40129 ft 505 kts 90°
2026-04-25 20:21 48.02417 -18.33484 40128 ft 506 kts 91°
2026-04-25 20:22 48.02477 -18.24747 40134 ft 506 kts 91°
2026-04-25 20:22 48.02550 -18.12467 40117 ft 506 kts 91°
2026-04-25 20:23 48.02603 -18.01963 40138 ft 506 kts 91°
2026-04-25 20:23 48.02645 -17.91454 40146 ft 506 kts 91°
2026-04-25 20:24 48.02678 -17.80947 40144 ft 506 kts 91°
2026-04-25 20:24 48.02702 -17.70434 40149 ft 506 kts 91°
2026-04-25 20:25 48.02716 -17.59934 40152 ft 506 kts 91°
2026-04-25 20:25 48.02720 -17.49417 40149 ft 506 kts 91°
2026-04-25 20:26 48.02714 -17.38911 40147 ft 506 kts 91°
2026-04-25 20:26 48.02700 -17.28409 40141 ft 506 kts 91°
2026-04-25 20:27 48.02675 -17.17908 40156 ft 506 kts 92°
2026-04-25 20:27 48.02641 -17.07401 40160 ft 506 kts 92°
2026-04-25 20:28 48.02597 -16.96897 40156 ft 506 kts 92°
2026-04-25 20:28 48.02544 -16.86381 40170 ft 507 kts 92°
2026-04-25 20:29 48.02481 -16.75857 40167 ft 506 kts 92°
2026-04-25 20:29 48.02409 -16.65335 40173 ft 506 kts 92°
2026-04-25 20:30 48.02327 -16.54823 40176 ft 506 kts 92°
2026-04-25 20:30 48.02235 -16.44295 40177 ft 506 kts 93°
2026-04-25 20:31 48.02134 -16.33780 40170 ft 506 kts 93°
2026-04-25 20:31 48.02023 -16.23266 40180 ft 506 kts 93°
2026-04-25 20:32 48.01904 -16.12831 40188 ft 506 kts 93°
2026-04-25 20:32 48.01773 -16.02265 40186 ft 506 kts 93°
2026-04-25 20:33 48.01634 -15.91826 40191 ft 506 kts 93°
2026-04-25 20:33 48.01510 -15.83030 40188 ft 505 kts 94°
2026-04-25 20:34 48.01327 -15.70837 40191 ft 505 kts 94°
2026-04-25 20:34 48.01159 -15.60352 40197 ft 505 kts 94°
2026-04-25 20:35 48.00981 -15.49860 40203 ft 506 kts 94°
2026-04-25 20:35 48.00794 -15.39353 40209 ft 506 kts 94°
2026-04-25 20:36 48.00597 -15.28852 40213 ft 506 kts 94°
2026-04-25 20:36 48.00391 -15.18364 40214 ft 505 kts 94°
2026-04-25 20:37 48.00176 -15.07880 40217 ft 505 kts 94°
2026-04-25 20:37 47.99944 -14.97393 40211 ft 505 kts 95°
2026-04-25 20:38 47.99441 -14.86958 40219 ft 503 kts 98°
2026-04-25 20:38 47.98805 -14.76547 40216 ft 503 kts 98°
2026-04-25 20:39 47.98191 -14.66137 40213 ft 503 kts 97°
2026-04-25 20:39 47.97700 -14.57475 40218 ft 503 kts 97°
2026-04-25 20:40 47.97015 -14.45319 40220 ft 503 kts 97°
2026-04-25 20:40 47.96419 -14.34913 40221 ft 503 kts 97°
2026-04-25 20:41 47.95812 -14.24504 40222 ft 503 kts 98°
2026-04-25 20:41 47.95195 -14.14109 40227 ft 503 kts 98°
2026-04-25 20:42 47.94568 -14.03711 40226 ft 503 kts 98°
2026-04-25 20:42 47.93933 -13.93328 40231 ft 503 kts 98°
2026-04-25 20:43 47.93287 -13.82932 40233 ft 503 kts 98°
2026-04-25 20:43 47.92633 -13.72550 40233 ft 503 kts 98°
2026-04-25 20:44 47.91969 -13.62165 40226 ft 503 kts 98°
2026-04-25 20:44 47.91296 -13.51793 40234 ft 503 kts 98°
2026-04-25 20:45 47.90615 -13.41428 40232 ft 503 kts 98°
2026-04-25 20:45 47.89924 -13.31064 40235 ft 502 kts 98°
2026-04-25 20:46 47.89224 -13.20709 40237 ft 502 kts 98°
2026-04-25 20:46 47.88514 -13.10360 40238 ft 503 kts 98°
2026-04-25 20:47 47.87795 -13.00003 40241 ft 503 kts 98°
2026-04-25 20:47 47.87066 -12.89645 40241 ft 503 kts 98°
2026-04-25 20:48 47.86329 -12.79296 40241 ft 503 kts 98°
2026-04-25 20:48 47.85586 -12.69009 40243 ft 502 kts 98°
2026-04-25 20:49 47.84826 -12.58613 40246 ft 502 kts 99°
2026-04-25 20:49 47.84066 -12.48346 40246 ft 502 kts 99°
2026-04-25 20:50 47.83292 -12.38022 40246 ft 502 kts 99°
2026-04-25 20:50 47.82509 -12.27699 40245 ft 502 kts 99°
2026-04-25 20:51 47.81717 -12.17386 40247 ft 502 kts 99°
2026-04-25 20:51 47.80915 -12.07066 40247 ft 502 kts 99°
2026-04-25 20:52 47.80374 -12.00174 40243 ft 502 kts 99°
2026-04-25 20:52 47.79285 -11.86446 40234 ft 502 kts 99°
2026-04-25 20:53 47.78455 -11.76141 40252 ft 501 kts 99°
2026-04-25 20:53 47.77619 -11.65862 40251 ft 501 kts 99°
2026-04-25 20:54 47.76773 -11.55582 40247 ft 501 kts 99°
2026-04-25 20:54 47.75918 -11.45310 40251 ft 501 kts 99°
2026-04-25 20:55 47.75195 -11.36710 40248 ft 500 kts 99°
2026-04-25 20:55 47.74183 -11.24797 40246 ft 500 kts 99°
2026-04-25 20:56 47.73444 -11.16206 40251 ft 500 kts 99°
2026-04-25 20:56 47.72556 -11.05965 40251 ft 500 kts 99°
2026-04-25 20:57 47.71659 -10.95729 40246 ft 500 kts 99°
2026-04-25 20:57 47.70749 -10.85468 40242 ft 502 kts 99°
2026-04-25 20:58 47.69835 -10.75263 40254 ft 502 kts 99°
2026-04-25 20:58 47.68906 -10.64978 40240 ft 502 kts 100°
2026-04-25 20:59 47.67961 -10.54642 40248 ft 502 kts 100°
2026-04-25 20:59 47.67014 -10.44372 40252 ft 502 kts 100°
2026-04-25 21:00 47.66221 -10.35856 40253 ft 502 kts 100°
2026-04-25 21:01 47.64613 -10.18814 40255 ft 502 kts 100°
2026-04-25 21:01 47.63637 -10.08587 40245 ft 501 kts 100°
2026-04-25 21:02 47.62649 -9.98348 40254 ft 502 kts 100°
2026-04-25 21:02 47.61651 -9.88105 40253 ft 502 kts 100°
2026-04-25 21:03 47.60645 -9.77862 40250 ft 502 kts 100°
2026-04-25 21:03 47.59630 -9.67639 40248 ft 502 kts 100°
2026-04-25 21:04 47.58605 -9.57409 40250 ft 502 kts 100°
2026-04-25 21:04 47.57572 -9.47184 40249 ft 502 kts 100°
2026-04-25 21:05 47.56530 -9.36967 40254 ft 502 kts 100°
2026-04-25 21:05 47.55763 -9.29515 40252 ft 501 kts 100°
2026-04-25 21:06 47.54708 -9.19330 40247 ft 501 kts 100°
2026-04-25 21:06 47.53642 -9.09136 40249 ft 501 kts 100°
2026-04-25 21:07 47.52568 -8.98949 40255 ft 501 kts 101°
2026-04-25 21:07 47.51485 -8.88770 40252 ft 501 kts 101°
2026-04-25 21:08 47.50397 -8.78597 40248 ft 501 kts 100°
2026-04-25 21:08 47.50016 -8.68357 40246 ft 503 kts 92°
2026-04-25 21:09 47.50026 -8.52344 40246 ft 503 kts 91°
2026-04-25 21:09 47.50059 -8.42004 40246 ft 503 kts 91°
2026-04-25 21:10 47.50067 -8.31661 40235 ft 504 kts 91°
2026-04-25 21:10 47.50058 -8.21280 40366 ft 506 kts 91°
2026-04-25 21:11 47.50049 -8.16077 40543 ft 505 kts 91°
2026-04-25 21:11 47.50038 -8.10885 40733 ft 504 kts 91°
2026-04-25 21:11 47.50025 -8.05707 40886 ft 504 kts 91°
2026-04-25 21:11 47.50009 -8.00530 41026 ft 504 kts 91°
2026-04-25 21:12 47.49994 -7.95348 41171 ft 504 kts 91°
2026-04-25 21:12 47.49995 -7.90223 41237 ft 505 kts 90°
2026-04-25 21:12 47.50012 -7.81536 41238 ft 504 kts 90°
2026-04-25 21:13 47.50024 -7.69427 41241 ft 504 kts 90°
2026-04-25 21:13 47.50015 -7.59143 41243 ft 504 kts 91°
2026-04-25 21:14 47.49994 -7.48800 41243 ft 504 kts 90°
2026-04-25 21:14 47.49963 -7.38450 41243 ft 503 kts 91°
2026-04-25 21:15 47.49923 -7.28105 41244 ft 503 kts 91°
2026-04-25 21:15 47.49874 -7.17770 41243 ft 503 kts 91°
2026-04-25 21:16 47.49816 -7.07429 41241 ft 503 kts 91°
2026-04-25 21:16 47.49748 -6.97101 41241 ft 502 kts 91°
2026-04-25 21:17 47.49671 -6.86778 41243 ft 502 kts 91°
2026-04-25 21:17 47.49585 -6.76457 41238 ft 502 kts 91°
2026-04-25 21:18 47.49490 -6.66137 41236 ft 502 kts 91°
2026-04-25 21:18 47.49386 -6.55838 41238 ft 501 kts 91°
2026-04-25 21:19 47.49272 -6.45551 41238 ft 500 kts 91°
2026-04-25 21:19 47.49150 -6.35262 41238 ft 500 kts 91°
2026-04-25 21:20 47.49063 -6.28447 41235 ft 500 kts 91°
2026-04-25 21:20 47.48877 -6.14683 41233 ft 501 kts 91°
2026-04-25 21:21 47.48726 -6.04377 41233 ft 501 kts 91°
2026-04-25 21:21 47.48567 -5.94075 41230 ft 501 kts 91°
2026-04-25 21:22 47.48398 -5.83772 41231 ft 501 kts 91°
2026-04-25 21:22 47.48219 -5.73469 41227 ft 502 kts 91°
2026-04-25 21:23 47.48032 -5.63161 41225 ft 502 kts 91°
2026-04-25 21:23 47.47835 -5.52850 41225 ft 502 kts 91°
2026-04-25 21:24 47.47629 -5.42542 41222 ft 502 kts 91°
2026-04-25 21:24 47.47415 -5.32305 41222 ft 501 kts 91°
2026-04-25 21:25 47.47191 -5.22016 41220 ft 501 kts 91°
2026-04-25 21:25 47.46958 -5.11735 41216 ft 501 kts 91°
2026-04-25 21:26 47.46716 -5.01457 41216 ft 500 kts 91°
2026-04-25 21:26 47.46464 -4.91187 41208 ft 499 kts 91°
2026-04-25 21:27 47.46204 -4.80940 41205 ft 499 kts 91°
2026-04-25 21:27 47.45935 -4.70698 41207 ft 499 kts 91°
2026-04-25 21:28 47.45657 -4.60456 41199 ft 499 kts 91°
2026-04-25 21:28 47.45370 -4.50219 41199 ft 499 kts 91°
2026-04-25 21:29 47.45383 -4.39993 41193 ft 498 kts 86°
2026-04-25 21:29 47.45737 -4.29777 41192 ft 498 kts 85°
2026-04-25 21:30 47.46146 -4.19570 41194 ft 498 kts 85°
2026-04-25 21:30 47.46474 -4.11081 41185 ft 497 kts 85°
2026-04-25 21:31 47.46845 -4.00902 41183 ft 496 kts 85°
2026-04-25 21:31 47.47202 -3.90729 41179 ft 495 kts 86°
2026-04-25 21:32 47.47548 -3.80569 41177 ft 495 kts 86°
2026-04-25 21:32 47.47886 -3.70388 41178 ft 495 kts 86°
2026-04-25 21:33 47.48215 -3.60225 41171 ft 495 kts 86°
2026-04-25 21:33 47.48536 -3.50057 41168 ft 495 kts 86°
2026-04-25 21:34 47.48847 -3.39890 41170 ft 495 kts 86°
2026-04-25 21:34 47.49150 -3.29722 41172 ft 495 kts 86°
2026-04-25 21:35 47.49443 -3.19548 41174 ft 495 kts 86°
2026-04-25 21:35 47.49728 -3.09371 41176 ft 495 kts 86°
2026-04-25 21:36 47.50004 -2.99187 41180 ft 495 kts 86°
2026-04-25 21:36 47.50268 -2.89007 41182 ft 495 kts 86°
2026-04-25 21:37 47.50482 -2.80547 41182 ft 495 kts 86°
2026-04-25 21:37 47.50772 -2.68659 41171 ft 495 kts 86°
2026-04-25 21:38 47.51011 -2.58480 41075 ft 496 kts 86°
2026-04-25 21:38 47.51127 -2.53379 40617 ft 496 kts 86°
2026-04-25 21:38 47.51240 -2.48351 39940 ft 497 kts 86°
2026-04-25 21:39 47.51352 -2.43232 39194 ft 499 kts 86°
2026-04-25 21:39 47.51463 -2.38101 38379 ft 500 kts 86°
2026-04-25 21:39 47.51572 -2.32941 37485 ft 502 kts 86°
2026-04-25 21:39 47.51678 -2.27779 36586 ft 504 kts 85°
2026-04-25 21:40 47.51782 -2.22592 35869 ft 503 kts 85°
2026-04-25 21:40 47.51881 -2.17461 35515 ft 494 kts 85°
2026-04-25 21:40 47.51975 -2.12422 35310 ft 486 kts 85°
2026-04-25 21:40 47.52067 -2.07430 35198 ft 486 kts 85°
2026-04-25 21:41 47.52161 -2.02403 35000 ft 490 kts 85°
2026-04-25 21:41 47.52255 -1.97331 34851 ft 497 kts 85°
2026-04-25 21:41 47.52346 -1.92239 34739 ft 493 kts 85°
2026-04-25 21:41 47.52431 -1.87203 34642 ft 488 kts 85°
2026-04-25 21:42 47.52592 -1.77192 34444 ft 486 kts 85°
2026-04-25 21:42 47.52671 -1.72191 34330 ft 485 kts 85°
2026-04-25 21:42 47.52744 -1.67263 34202 ft 473 kts 85°
2026-04-25 21:43 47.52812 -1.62466 34073 ft 465 kts 85°
2026-04-25 21:43 47.52881 -1.57680 33915 ft 463 kts 85°
2026-04-25 21:43 47.52952 -1.52857 33786 ft 476 kts 85°
2026-04-25 21:43 47.53026 -1.47901 33655 ft 488 kts 85°
2026-04-25 21:44 47.53099 -1.42822 33523 ft 499 kts 85°
2026-04-25 21:44 47.53167 -1.37661 33389 ft 502 kts 86°
2026-04-25 21:44 47.53287 -1.27320 33127 ft 503 kts 86°
2026-04-25 21:45 47.53344 -1.22143 33001 ft 503 kts 86°
2026-04-25 21:45 47.53451 -1.11801 32743 ft 503 kts 86°
2026-04-25 21:45 47.53504 -1.06622 32608 ft 503 kts 86°
2026-04-25 21:46 47.53555 -1.01447 32475 ft 503 kts 86°
2026-04-25 21:46 47.53602 -0.96266 32358 ft 503 kts 86°
2026-04-25 21:46 47.53654 -0.91096 32212 ft 503 kts 85°
2026-04-25 21:46 47.53989 -0.85962 32084 ft 500 kts 77°
2026-04-25 21:47 47.54805 -0.81016 31972 ft 495 kts 70°
2026-04-25 21:47 47.55877 -0.76156 31840 ft 494 kts 68°
2026-04-25 21:47 47.57017 -0.71360 31716 ft 492 kts 68°
2026-04-25 21:47 47.58187 -0.66611 31591 ft 491 kts 67°
2026-04-25 21:48 47.59367 -0.61865 31469 ft 490 kts 67°
2026-04-25 21:48 47.60537 -0.57130 31343 ft 489 kts 68°
2026-04-25 21:48 47.61677 -0.52458 31218 ft 488 kts 68°
2026-04-25 21:48 47.62823 -0.47726 31088 ft 487 kts 68°
2026-04-25 21:49 47.63963 -0.43004 30978 ft 486 kts 68°
2026-04-25 21:49 47.65098 -0.38282 30841 ft 485 kts 68°
2026-04-25 21:49 47.66227 -0.33575 30723 ft 484 kts 68°
2026-04-25 21:49 47.67413 -0.28910 30610 ft 482 kts 64°
2026-04-25 21:50 47.68935 -0.24518 30469 ft 478 kts 56°
2026-04-25 21:50 47.70825 -0.20491 30363 ft 474 kts 50°
2026-04-25 21:50 47.72860 -0.16632 30235 ft 473 kts 49°
2026-04-25 21:51 47.76961 -0.09002 30173 ft 472 kts 49°
2026-04-25 21:51 47.81059 -0.01376 30178 ft 472 kts 49°
2026-04-25 21:52 47.85156 0.06264 30183 ft 473 kts 49°
2026-04-25 21:52 47.89252 0.13924 30184 ft 473 kts 49°
2026-04-25 21:52 47.91288 0.17740 29818 ft 468 kts 49°
2026-04-25 21:53 47.93303 0.21522 29177 ft 463 kts 50°
2026-04-25 21:53 47.95297 0.25271 28563 ft 458 kts 50°
2026-04-25 21:53 47.97264 0.28973 27984 ft 454 kts 50°
2026-04-25 21:53 47.99215 0.32649 27401 ft 449 kts 50°
2026-04-25 21:54 48.01145 0.36290 26811 ft 445 kts 50°
2026-04-25 21:54 48.03060 0.39909 26229 ft 442 kts 50°
2026-04-25 21:54 48.04955 0.43492 25660 ft 439 kts 50°
2026-04-25 21:54 48.06839 0.47061 25080 ft 436 kts 50°
2026-04-25 21:55 48.08718 0.50626 24503 ft 434 kts 50°
2026-04-25 21:55 48.10572 0.54146 23931 ft 432 kts 50°
2026-04-25 21:55 48.12428 0.57675 23282 ft 430 kts 50°
2026-04-25 21:55 48.14266 0.61177 22678 ft 426 kts 50°
2026-04-25 21:56 48.16087 0.64650 22095 ft 423 kts 50°
2026-04-25 21:56 48.17285 0.66937 21694 ft 420 kts 50°
2026-04-25 21:56 48.19688 0.71530 20927 ft 417 kts 51°
2026-04-25 21:56 48.21470 0.74939 20325 ft 414 kts 51°
2026-04-25 21:57 48.23240 0.78332 19738 ft 412 kts 51°
2026-04-25 21:57 48.25003 0.81714 19117 ft 410 kts 51°
2026-04-25 21:57 48.26752 0.85074 18537 ft 407 kts 51°
2026-04-25 21:57 48.28489 0.88415 17882 ft 405 kts 51°
2026-04-25 21:58 48.30214 0.91739 17251 ft 401 kts 51°
2026-04-25 21:58 48.31920 0.95029 16668 ft 397 kts 51°
2026-04-25 21:58 48.33608 0.98289 16078 ft 394 kts 51°
2026-04-25 21:58 48.35284 1.01527 15479 ft 390 kts 51°
2026-04-25 21:59 48.36944 1.04740 14884 ft 387 kts 51°
2026-04-25 21:59 48.38585 1.07920 14314 ft 384 kts 51°
2026-04-25 21:59 48.40212 1.11077 13856 ft 377 kts 51°
2026-04-25 22:00 48.43265 1.17012 13571 ft 345 kts 51°
2026-04-25 22:00 48.44703 1.19813 13432 ft 331 kts 51°
2026-04-25 22:00 48.46082 1.22502 13299 ft 317 kts 51°
2026-04-25 22:00 48.47404 1.25080 13143 ft 305 kts 51°
2026-04-25 22:01 48.48693 1.27595 12878 ft 303 kts 51°
2026-04-25 22:01 48.49979 1.30108 12524 ft 302 kts 51°
2026-04-25 22:01 48.51224 1.32653 12158 ft 301 kts 56°
2026-04-25 22:01 48.51927 1.34490 12055 ft 300 kts 61°
2026-04-25 22:02 48.53204 1.38187 11896 ft 300 kts 62°
2026-04-25 22:02 48.54156 1.40975 11723 ft 299 kts 62°
2026-04-25 22:02 48.55107 1.43760 11581 ft 298 kts 62°
2026-04-25 22:02 48.56056 1.46537 11427 ft 297 kts 61°
2026-04-25 22:03 48.57067 1.49242 11272 ft 296 kts 53°
2026-04-25 22:03 48.58546 1.51349 11113 ft 292 kts 30°
2026-04-25 22:03 48.60332 1.52775 10914 ft 290 kts 25°
2026-04-25 22:03 48.62153 1.54090 10707 ft 290 kts 25°
2026-04-25 22:04 48.63975 1.55399 10555 ft 289 kts 25°
2026-04-25 22:04 48.65787 1.56703 10388 ft 289 kts 25°
2026-04-25 22:04 48.67598 1.58007 10213 ft 288 kts 25°
2026-04-25 22:04 48.69406 1.59309 10049 ft 287 kts 25°
2026-04-25 22:05 48.71209 1.60606 9874 ft 287 kts 25°
2026-04-25 22:05 48.73007 1.61900 9644 ft 286 kts 25°
2026-04-25 22:05 48.74800 1.63188 9394 ft 285 kts 25°
2026-04-25 22:05 48.76581 1.64483 9125 ft 284 kts 24°
2026-04-25 22:06 48.78311 1.65900 8863 ft 284 kts 36°
2026-04-25 22:06 48.79702 1.68013 8617 ft 283 kts 50°
2026-04-25 22:06 48.80921 1.70343 8375 ft 282 kts 51°
2026-04-25 22:06 48.82118 1.72692 8122 ft 281 kts 51°
2026-04-25 22:07 48.83309 1.75037 7958 ft 280 kts 51°
2026-04-25 22:07 48.84093 1.76587 7860 ft 279 kts 51°
2026-04-25 22:07 48.85677 1.79709 7702 ft 278 kts 52°
2026-04-25 22:07 48.86856 1.82041 7553 ft 277 kts 52°
2026-04-25 22:08 48.88029 1.84361 7444 ft 277 kts 52°
2026-04-25 22:08 48.89205 1.86681 7311 ft 277 kts 51°
2026-04-25 22:08 48.90373 1.88994 7145 ft 276 kts 52°
2026-04-25 22:08 48.91543 1.91304 6962 ft 275 kts 52°
2026-04-25 22:09 48.92698 1.93581 6759 ft 268 kts 52°
2026-04-25 22:09 48.93814 1.95787 6559 ft 259 kts 51°
2026-04-25 22:09 48.94895 1.97917 6350 ft 252 kts 51°
2026-04-25 22:09 48.95953 2.00006 6132 ft 245 kts 51°
2026-04-25 22:10 48.96872 2.02131 5916 ft 239 kts 69°
2026-04-25 22:10 48.96992 2.04624 5718 ft 238 kts 96°
2026-04-25 22:10 48.96814 2.07133 5527 ft 239 kts 93°
2026-04-25 22:10 48.96775 2.09655 5327 ft 238 kts 86°
2026-04-25 22:11 48.96879 2.12123 5124 ft 231 kts 84°
2026-04-25 22:11 48.97009 2.14503 5012 ft 219 kts 84°
2026-04-25 22:11 48.97138 2.16771 5007 ft 212 kts 83°
2026-04-25 22:11 48.97263 2.18915 5027 ft 196 kts 83°
2026-04-25 22:12 48.97387 2.20958 4955 ft 193 kts 83°
2026-04-25 22:12 48.97509 2.22994 4816 ft 193 kts 84°
2026-04-25 22:12 48.97613 2.25029 4580 ft 193 kts 84°
2026-04-25 22:12 48.97645 2.25717 4501 ft 192 kts 84°
2026-04-25 22:13 48.97797 2.29105 4111 ft 190 kts 84°
2026-04-25 22:13 48.97917 2.31061 3847 ft 189 kts 82°
2026-04-25 22:13 48.98044 2.33045 3563 ft 188 kts 83°
2026-04-25 22:13 48.98138 2.35018 3241 ft 186 kts 84°
2026-04-25 22:14 48.98225 2.36981 2943 ft 184 kts 84°
2026-04-25 22:14 48.98334 2.38915 2712 ft 183 kts 83°
2026-04-25 22:14 48.98451 2.40844 2460 ft 182 kts 83°
2026-04-25 22:14 48.98559 2.42751 2218 ft 180 kts 84°
2026-04-25 22:15 48.98653 2.44609 1987 ft 171 kts 84°
2026-04-25 22:15 48.98732 2.46346 1746 ft 158 kts 84°
2026-04-25 22:15 48.98819 2.47959 1494 ft 148 kts 83°
2026-04-25 22:16 48.98989 2.50888 1084 ft 131 kts 83°
2026-04-25 22:16 48.99036 2.51805 998 ft 132 kts 83°
2026-04-25 22:16 48.99102 2.53199 833 ft 132 kts 83°
2026-04-25 22:16 48.99178 2.54592 666 ft 132 kts 82°
2026-04-25 22:17 48.99260 2.55988 487 ft 132 kts 82°
2026-04-25 22:17 48.99333 2.57379 367 ft 129 kts 83°
2026-04-25 22:17 48.99397 2.58528 362 ft 75 kts 85°
2026-04-25 22:17 48.99423 2.58978 362 ft 32 kts 85°
2026-04-25 22:18 48.99479 2.59292 367 ft 29 kts 64°
2026-04-25 22:18 48.99531 2.59461 367 ft 12 kts 65°
2026-04-25 22:18 48.99570 2.59591 365 ft 14 kts 65°
2026-04-25 22:18 48.99614 2.59736 362 ft 16 kts 65°
2026-04-25 22:19 48.99644 2.59901 364 ft 17 kts 82°
2026-04-25 22:19 48.99717 2.59966 365 ft 13 kts 360°
2026-04-25 22:19 48.99816 2.59955 366 ft 15 kts 355°
2026-04-25 22:19 48.99906 2.60021 369 ft 14 kts 49°
2026-04-25 22:20 48.99959 2.60072 366 ft 3 kts
2026-04-25 22:20 48.99989 2.60068 364 ft 5 kts 340°
2026-04-25 22:20 49.00012 2.60042 369 ft 0 kts 322°
2026-04-25 22:21 49.00038 2.60014 365 ft 9 kts 328°
2026-04-25 22:21 49.00093 2.59931 367 ft 15 kts 285°
2026-04-25 22:21 49.00088 2.59747 367 ft 19 kts 265°
2026-04-25 22:21 49.00076 2.59533 366 ft 22 kts 265°
2026-04-25 22:22 49.00062 2.59326 366 ft 19 kts 263°
2026-04-25 22:22 49.00055 2.59164 363 ft 12 kts 267°
2026-04-25 22:22 49.00050 2.59049 366 ft 10 kts 266°
2026-04-25 22:22 49.00045 2.58944 365 ft 7 kts 264°
2026-04-25 22:23 49.00041 2.58853 364 ft 10 kts 274°
2026-04-25 22:23 49.00070 2.58781 365 ft 7 kts 327°
2026-04-25 22:23 49.00128 2.58766 362 ft 10 kts 357°
2026-04-25 22:23 49.00206 2.58757 363 ft 12 kts 353°
2026-04-25 22:24 49.00301 2.58742 364 ft 15 kts 355°
2026-04-25 22:24 49.00411 2.58733 363 ft 17 kts 356°
2026-04-25 22:24 49.00512 2.58719 363 ft 13 kts 355°
2026-04-25 22:24 49.00535 2.58716 365 ft 0 kts 355°
2026-04-25 22:25 49.00550 2.58711 367 ft 4 kts 338°
2026-04-25 22:25 49.00563 2.58670 367 ft 6 kts 282°
2026-04-25 22:25 49.00563 2.58617 367 ft 0 kts 267°
2026-04-25 22:25 49.00563 2.58613 367 ft 2 kts 268°
2026-04-25 22:26 49.00562 2.58595 366 ft 0 kts 267°
2026-04-25 22:26 49.00562 2.58594 366 ft 0 kts 267°
2026-04-25 22:26 49.00562 2.58590 366 ft 0 kts 267°
2026-04-25 22:26 49.00562 2.58587 366 ft 0 kts 267°
2026-04-25 22:27 49.00562 2.58586 366 ft 0 kts 267°